KJ6MC Weather Reports


time (UTC)temp
C
wind
direction
speed
KPH
gust
KPH
rain 1hr
cm
rain 24hr
cm
rain mn
cm
humidity
%
barometer
mb
20260831074238 17 114 3.2 6.4 0.00 0.00 0.00 69 1010.1
20260831074206 17 146 3.2 6.4 0.00 0.00 0.00 69 1010.1
20260831074139 17 148 3.2 6.4 0.00 0.00 0.00 69 1010.1
20260831074038 17 214 3.2 6.4 0.00 0.00 0.00 70 1010.1
20260831073938 17 222 1.6 6.4 0.00 0.00 0.00 70 1010.1
20260831073838 17 203 1.6 6.4 0.00 0.00 0.00 70 1010.1
20260831073736 17 191 1.6 6.4 0.00 0.00 0.00 70 1010.1
20260831073706 17 208 1.6 6.4 0.00 0.00 0.00 70 1010.1
20260831073637 17 221 1.6 6.4 0.00 0.00 0.00 70 1010.1
20260831073535 17 219 1.6 6.4 0.00 0.00 0.00 70 1010.1
20260831073432 17 166 1.6 6.4 0.00 0.00 0.00 70 1010.1
20260831073327 17 217 1.6 6.4 0.00 0.00 0.00 70 1010.1
20260831073226 17 143 1.6 4.8 0.00 0.00 0.00 70 1010.0
20260831073205 17 205 1.6 4.8 0.00 0.00 0.00 70 1010.0
20260831073127 17 165 1.6 6.4 0.00 0.00 0.00 70 1010.0
20260831073026 17 191 1.6 6.4 0.00 0.00 0.00 70 1010.0
20260831072936 17 222 1.6 6.4 0.00 0.00 0.00 70 1010.1
20260831072926 17 226 1.6 6.4 0.00 0.00 0.00 70 1010.1
20260831072823 17 217 1.6 6.4 0.00 0.00 0.00 70 1010.0
20260831072815 17 222 1.6 6.4 0.00 0.00 0.00 70 1010.0
20260831072620 17 145 1.6 6.4 0.00 0.00 0.00 70 1010.1
20260831072521 17 158 1.6 6.4 0.00 0.00 0.00 70 1010.1
20260831072420 17 158 1.6 6.4 0.00 0.00 0.00 70 1010.0
20260831072316 17 210 1.6 6.4 0.00 0.00 0.00 70 1010.0
20260831072215 17 140 1.6 6.4 0.00 0.00 0.00 70 1010.0
20260831072205 17 131 1.6 6.4 0.00 0.00 0.00 70 1010.1
20260831072114 17 125 1.6 3.2 0.00 0.00 0.00 70 1010.1
20260831072014 17 232 1.6 3.2 0.00 0.00 0.00 70 1010.1
20260831071914 17 125 1.6 3.2 0.00 0.00 0.00 70 1010.1
20260831071808 17 119 1.6 3.2 0.00 0.00 0.00 70 1010.1
20260831071712 17 118 1.6 4.8 0.00 0.00 0.00 70 1010.1
20260831071706 17 119 1.6 4.8 0.00 0.00 0.00 70 1010.1
20260831071651 17 148 1.6 4.8 0.00 0.00 0.00 70 1010.0
20260831071609 17 119 1.6 4.8 0.00 0.00 0.00 70 1010.0
20260831071535 17 185 1.6 4.8 0.00 0.00 0.00 70 1010.0
20260831071409 17 200 1.6 4.8 0.00 0.00 0.00 70 1010.0
20260831071318 17 200 1.6 4.8 0.00 0.00 0.00 70 1010.1
20260831071203 17 148 1.6 4.8 0.00 0.00 0.00 70 1010.0
20260831071102 17 210 1.6 4.8 0.00 0.00 0.00 70 1010.0
20260831071003 17 146 1.6 4.8 0.00 0.00 0.00 70 1010.0
20260831070901 17 158 1.6 8.0 0.00 0.00 0.00 70 1010.0
20260831070801 17 239 1.6 8.0 0.00 0.00 0.00 70 1010.0
20260831070706 17 210 1.6 8.0 0.00 0.00 0.00 70 1009.9
20260831070701 17 210 1.6 8.0 0.00 0.00 0.00 70 1009.9
20260831070601 17 208 1.6 8.0 0.00 0.00 0.00 70 1009.9
20260831070501 17 212 1.6 8.0 0.00 0.00 0.00 70 1009.9
20260831070356 17 221 1.6 8.0 0.00 0.00 0.00 70 1010.0
20260831070255 17 195 1.6 8.0 0.00 0.00 0.00 70 1009.9
20260831070204 17 194 1.6 8.0 0.00 0.00 0.00 69 1009.9
20260831070154 17 193 1.6 8.0 0.00 0.00 0.00 69 1009.9
20260831070055 17 204 1.6 8.0 0.00 0.00 0.00 69 1010.0
20260831065952 17 232 0.0 8.0 0.00 0.00 0.00 70 1009.9
20260831065850 17 132 0.0 3.2 0.00 0.00 0.00 70 1009.9
20260831065746 17 123 0.0 3.2 0.00 0.00 0.00 70 1009.9
20260831065701 17 217 0.0 3.2 0.00 0.00 0.00 70 1009.8
20260831065644 17 221 0.0 3.2 0.00 0.00 0.00 69 1009.8
20260831065545 17 229 0.0 3.2 0.00 0.00 0.00 69 1009.9
20260831065445 17 229 0.0 3.2 0.00 0.00 0.00 69 1009.9
20260831065344 17 135 0.0 1.6 0.00 0.00 0.00 69 1009.9
20260831065242 17 136 0.0 1.6 0.00 0.00 0.00 69 1009.9
20260831065203 17 135 0.0 4.8 0.00 0.00 0.00 69 1009.9
20260831065141 18 136 0.0 4.8 0.00 0.00 0.00 69 1009.9
20260831065040 18 136 0.0 4.8 0.00 0.00 0.00 69 1009.9
20260831064938 18 131 1.6 4.8 0.00 0.00 0.00 69 1009.9
20260831064835 18 131 1.6 4.8 0.00 0.00 0.00 69 1009.9
20260831064737 18 131 1.6 4.8 0.00 0.00 0.00 69 1010.0
20260831064657 18 131 1.6 4.8 0.00 0.00 0.00 68 1009.9
20260831064635 18 131 1.6 4.8 0.00 0.00 0.00 69 1009.9
20260831064535 18 131 1.6 4.8 0.00 0.00 0.00 69 1009.9
20260831064433 18 229 1.6 4.8 0.00 0.00 0.00 68 1010.0
20260831064416 18 136 1.6 4.8 0.00 0.00 0.00 68 1009.9
20260831064330 18 135 1.6 4.8 0.00 0.00 0.00 68 1009.9
20260831064259 18 135 1.6 4.8 0.00 0.00 0.00 68 1009.9
20260831064128 18 135 1.6 4.8 0.00 0.00 0.00 68 1009.9
20260831064029 18 129 1.6 4.8 0.00 0.00 0.00 68 1009.9
20260831063925 18 217 1.6 4.8 0.00 0.00 0.00 68 1009.9
20260831063907 18 131 3.2 4.8 0.00 0.00 0.00 68 1009.9
20260831063824 18 131 1.6 4.8 0.00 0.00 0.00 68 1009.9
20260831063755 18 131 3.2 4.8 0.00 0.00 0.00 68 1009.9
20260831063623 18 131 3.2 4.8 0.00 0.00 0.00 68 1009.9
20260831063523 18 134 3.2 4.8 0.00 0.00 0.00 68 1009.9
20260831063420 18 135 1.6 4.8 0.00 0.00 0.00 68 1010.0
20260831063320 18 161 1.6 4.8 0.00 0.00 0.00 68 1010.0
20260831063216 18 142 1.6 4.8 0.00 0.00 0.00 68 1009.9
20260831063138 18 130 1.6 4.8 0.00 0.00 0.00 68 1009.9
20260831063116 18 142 1.6 4.8 0.00 0.00 0.00 67 1009.9
20260831063017 18 127 1.6 4.8 0.00 0.00 0.00 67 1009.9
20260831062914 18 127 1.6 4.8 0.00 0.00 0.00 67 1009.9
20260831062814 18 124 1.6 4.8 0.00 0.00 0.00 67 1009.9
20260831062707 18 134 1.6 4.8 0.00 0.00 0.00 67 1009.9
20260831062632 18 143 1.6 4.8 0.00 0.00 0.00 67 1009.9
20260831062607 18 134 1.6 4.8 0.00 0.00 0.00 67 1009.9
20260831062506 18 141 1.6 4.8 0.00 0.00 0.00 67 1009.9
20260831062407 18 140 1.6 4.8 0.00 0.00 0.00 67 1009.9
20260831062306 18 139 1.6 4.8 0.00 0.00 0.00 67 1009.9
20260831062206 18 124 1.6 4.8 0.00 0.00 0.00 67 1009.9
20260831062127 18 181 1.6 4.8 0.00 0.00 0.00 67 1009.9
20260831062105 18 210 1.6 8.0 0.00 0.00 0.00 67 1009.9
20260831062003 18 210 1.6 9.7 0.00 0.00 0.00 67 1009.8
20260831061903 18 228 1.6 9.7 0.00 0.00 0.00 66 1009.8
20260831061800 18 130 3.2 9.7 0.00 0.00 0.00 66 1009.9
20260831061654 18 129 3.2 11.3 0.00 0.00 0.00 66 1009.8
20260831061621 18 131 3.2 11.3 0.00 0.00 0.00 66 1009.8
20260831061555 18 221 3.2 11.3 0.00 0.00 0.00 66 1009.8
20260831061454 18 221 3.2 11.3 0.00 0.00 0.00 66 1009.8
20260831061356 18 223 3.2 11.3 0.00 0.00 0.00 66 1009.8
20260831061317 19 195 4.8 17.7 0.00 0.00 0.00 66 1009.7
20260831061254 18 228 3.2 11.3 0.00 0.00 0.00 66 1009.8
20260831061221 19 207 3.2 11.3 0.00 0.00 0.00 66 1009.8
20260831061209 19 204 3.2 11.3 0.00 0.00 0.00 66 1009.8
20260831061053 19 248 3.2 11.3 0.00 0.00 0.00 66 1009.8
20260831060953 19 226 4.8 11.3 0.00 0.00 0.00 66 1009.7
20260831060936 19 229 4.8 11.3 0.00 0.00 0.00 66 1009.8
20260831060748 19 216 4.8 17.7 0.00 0.00 0.00 66 1009.7
20260831060724 19 246 4.8 17.7 0.00 0.00 0.00 66 1009.7
20260831060546 19 200 4.8 17.7 0.00 0.00 0.00 66 1009.7
20260831060444 19 248 4.8 17.7 0.00 0.00 0.00 66 1009.7
20260831060343 19 250 6.4 17.7 0.00 0.00 0.00 65 1009.6
20260831060240 19 224 6.4 17.7 0.00 0.00 0.00 66 1009.7
20260831060135 19 212 6.4 17.7 0.00 0.00 0.00 65 1009.7
20260831060113 19 248 4.8 17.7 0.00 0.00 0.00 65 1009.6
20260831060035 19 212 4.8 17.7 0.00 0.00 0.00 65 1009.6
20260831055935 19 225 4.8 17.7 0.00 0.00 0.00 65 1009.7
20260831055834 19 214 4.8 12.9 0.00 0.00 0.00 65 1009.7
20260831055735 19 248 4.8 12.9 0.00 0.00 0.00 65 1009.7
20260831055632 19 230 4.8 12.9 0.00 0.00 0.00 65 1009.7
20260831055619 19 233 4.8 9.7 0.00 0.00 0.00 65 1009.7
20260831055529 19 224 4.8 9.7 0.00 0.00 0.00 65 1009.7
20260831055429 19 208 4.8 9.7 0.00 0.00 0.00 65 1009.7
20260831055328 19 224 4.8 9.7 0.00 0.00 0.00 65 1009.8
20260831055228 19 259 4.8 12.9 0.00 0.00 0.00 65 1009.7
20260831055129 19 231 4.8 12.9 0.00 0.00 0.00 65 1009.8
20260831055109 19 232 4.8 12.9 0.00 0.00 0.00 65 1009.7
20260831055026 19 207 4.8 12.9 0.00 0.00 0.00 65 1009.7
20260831054926 19 232 4.8 12.9 0.00 0.00 0.00 65 1009.7
20260831054825 19 231 4.8 14.5 0.00 0.00 0.00 65 1009.7
20260831054722 19 233 4.8 14.5 0.00 0.00 0.00 64 1009.7
20260831054617 20 253 4.8 16.1 0.00 0.00 0.00 65 1009.7
20260831054606 20 246 6.4 16.1 0.00 0.00 0.00 65 1009.7
20260831054517 20 241 6.4 16.1 0.00 0.00 0.00 64 1009.7
20260831054417 20 240 6.4 16.1 0.00 0.00 0.00 64 1009.7
20260831054317 20 239 6.4 16.1 0.00 0.00 0.00 64 1009.7
20260831054216 20 229 6.4 16.1 0.00 0.00 0.00 64 1009.7
20260831054113 20 243 6.4 16.1 0.00 0.00 0.00 64 1009.7
20260831054107 20 246 6.4 16.1 0.00 0.00 0.00 64 1009.7
20260831054013 20 238 6.4 16.1 0.00 0.00 0.00 64 1009.7
20260831053912 20 236 6.4 16.1 0.00 0.00 0.00 64 1009.7
20260831053813 20 223 6.4 16.1 0.00 0.00 0.00 64 1009.8
20260831053710 20 226 6.4 11.3 0.00 0.00 0.00 64 1009.7
20260831053607 20 245 6.4 11.3 0.00 0.00 0.00 64 1009.7
20260831053504 20 217 6.4 11.3 0.00 0.00 0.00 64 1009.8
20260831053404 20 260 4.8 11.3 0.00 0.00 0.00 64 1009.7
20260831053305 20 236 4.8 11.3 0.00 0.00 0.00 63 1009.8
20260831053204 20 266 4.8 11.3 0.00 0.00 0.00 63 1009.7
20260831053106 20 229 4.8 11.3 0.00 0.00 0.00 63 1009.7
20260831053058 20 229 4.8 11.3 0.00 0.00 0.00 63 1009.7
20260831052959 20 233 4.8 11.3 0.00 0.00 0.00 63 1009.7
20260831052858 20 221 4.8 11.3 0.00 0.00 0.00 63 1009.7
20260831052800 20 170 4.8 12.9 0.00 0.00 0.00 63 1009.8
20260831052658 20 243 6.4 12.9 0.00 0.00 0.00 63 1009.7
20260831052617 20 228 6.4 14.5 0.00 0.00 0.00 63 1009.7
20260831052559 20 221 6.4 14.5 0.00 0.00 0.00 63 1009.7
20260831052459 20 242 6.4 14.5 0.00 0.00 0.00 63 1009.7
20260831052357 20 232 6.4 14.5 0.00 0.00 0.00 62 1009.8
20260831052253 20 250 6.4 14.5 0.00 0.00 0.00 62 1009.8
20260831052151 20 207 8.0 19.3 0.00 0.00 0.00 62 1009.8
20260831052104 20 226 8.0 19.3 0.00 0.00 0.00 62 1009.8
20260831052047 20 305 8.0 19.3 0.00 0.00 0.00 62 1009.8
20260831051947 20 233 8.0 19.3 0.00 0.00 0.00 62 1009.8
20260831051847 20 233 6.4 19.3 0.00 0.00 0.00 62 1009.8
20260831051746 20 235 6.4 19.3 0.00 0.00 0.00 62 1009.7
20260831051645 20 242 6.4 19.3 0.00 0.00 0.00 62 1009.8
20260831051604 20 231 6.4 19.3 0.00 0.00 0.00 62 1009.8
20260831051544 20 200 6.4 19.3 0.00 0.00 0.00 62 1009.8
20260831051444 20 211 6.4 19.3 0.00 0.00 0.00 62 1009.8
20260831051345 20 238 6.4 19.3 0.00 0.00 0.00 61 1009.8
20260831051243 20 257 6.4 19.3 0.00 0.00 0.00 61 1009.8
20260831051140 20 255 6.4 16.1 0.00 0.00 0.00 61 1009.8
20260831051104 20 232 4.8 16.1 0.00 0.00 0.00 61 1009.8
20260831051035 20 248 4.8 16.1 0.00 0.00 0.00 61 1009.8
20260831050934 20 232 6.4 16.1 0.00 0.00 0.00 61 1009.8
20260831050835 20 246 6.4 16.1 0.00 0.00 0.00 61 1009.8
20260831050734 20 245 8.0 17.7 0.00 0.00 0.00 61 1009.7
20260831050634 20 234 8.0 17.7 0.00 0.00 0.00 61 1009.8
20260831050604 20 262 6.4 17.7 0.00 0.00 0.00 61 1009.8
20260831050533 20 242 6.4 17.7 0.00 0.00 0.00 61 1009.8
20260831050433 21 276 8.0 17.7 0.00 0.00 0.00 61 1009.8
20260831050341 21 250 8.0 17.7 0.00 0.00 0.00 61 1009.8
20260831050331 21 169 8.0 17.7 0.00 0.00 0.00 61 1009.8
20260831050234 21 214 8.0 17.7 0.00 0.00 0.00 61 1009.8
20260831050225 21 259 8.0 17.7 0.00 0.00 0.00 61 1009.8
20260831050047 21 240 6.4 16.1 0.00 0.00 0.00 60 1009.8
20260831050025 21 236 8.0 17.7 0.00 0.00 0.00 61 1009.8
20260831045953 21 188 8.0 17.7 0.00 0.00 0.00 60 1009.7
20260831045854 21 235 6.4 16.1 0.00 0.00 0.00 60 1009.8
20260831045723 21 233 6.4 16.1 0.00 0.00 0.00 60 1009.7
20260831045715 21 231 6.4 16.1 0.00 0.00 0.00 60 1009.7
20260831045516 21 224 6.4 19.3 0.00 0.00 0.00 60 1009.8
20260831045416 21 250 6.4 19.3 0.00 0.00 0.00 60 1009.7
20260831045316 21 250 6.4 19.3 0.00 0.00 0.00 60 1009.7
20260831045217 21 239 6.4 19.3 0.00 0.00 0.00 60 1009.7
20260831045116 21 193 6.4 19.3 0.00 0.00 0.00 60 1009.7
20260831045103 21 246 6.4 19.3 0.00 0.00 0.00 60 1009.7
20260831045011 21 212 6.4 19.3 0.00 0.00 0.00 60 1009.6
20260831044910 21 242 6.4 19.3 0.00 0.00 0.00 60 1009.7
20260831044824 21 271 6.4 19.3 0.00 0.00 0.00 60 1009.6
20260831044811 21 221 8.0 19.3 0.00 0.00 0.00 60 1009.7
20260831044720 21 245 8.0 19.3 0.00 0.00 0.00 60 1009.6
20260831044712 21 217 8.0 19.3 0.00 0.00 0.00 60 1009.6
20260831044510 21 205 6.4 14.5 0.00 0.00 0.00 60 1009.6
20260831044411 21 231 6.4 14.5 0.00 0.00 0.00 60 1009.6
20260831044311 21 233 6.4 17.7 0.00 0.00 0.00 60 1009.6
20260831044211 21 235 6.4 17.7 0.00 0.00 0.00 60 1009.6
20260831044110 21 250 6.4 17.7 0.00 0.00 0.00 60 1009.6
20260831044104 21 243 6.4 17.7 0.00 0.00 0.00 60 1009.6
20260831044010 21 269 6.4 17.7 0.00 0.00 0.00 60 1009.6
20260831043911 21 278 6.4 17.7 0.00 0.00 0.00 60 1009.6
20260831043816 21 253 8.0 19.3 0.00 0.00 0.00 59 1009.6
20260831043811 21 218 8.0 17.7 0.00 0.00 0.00 59 1009.6
20260831043714 21 215 6.4 17.7 0.00 0.00 0.00 59 1009.6
20260831043706 21 219 6.4 19.3 0.00 0.00 0.00 59 1009.6
20260831043511 21 257 8.0 19.3 0.00 0.00 0.00 59 1009.6
20260831043410 21 219 8.0 19.3 0.00 0.00 0.00 59 1009.6
20260831043306 21 256 8.0 19.3 0.00 0.00 0.00 59 1009.6
20260831043207 21 230 8.0 19.3 0.00 0.00 0.00 59 1009.6
20260831043107 21 245 8.0 19.3 0.00 0.00 0.00 59 1009.6
20260831043059 21 224 8.0 19.3 0.00 0.00 0.00 59 1009.6
20260831043006 21 263 8.0 19.3 0.00 0.00 0.00 59 1009.6
20260831042903 21 192 6.4 19.3 0.00 0.00 0.00 59 1009.6
20260831042756 21 242 6.4 19.3 0.00 0.00 0.00 59 1009.6
20260831042657 21 277 6.4 19.3 0.00 0.00 0.00 59 1009.6
20260831042600 21 225 6.4 16.1 0.00 0.00 0.00 59 1009.6
20260831042556 21 242 6.4 16.1 0.00 0.00 0.00 59 1009.6
20260831042458 21 257 6.4 17.7 0.00 0.00 0.00 58 1009.5
20260831042356 21 239 6.4 17.7 0.00 0.00 0.00 58 1009.6
20260831042315 21 224 8.0 19.3 0.00 0.00 0.00 58 1009.5
20260831042255 21 276 6.4 17.7 0.00 0.00 0.00 58 1009.6
20260831042210 21 256 8.0 17.7 0.00 0.00 0.00 58 1009.5
20260831042200 21 224 8.0 19.3 0.00 0.00 0.00 58 1009.5
20260831041954 21 216 8.0 19.3 0.00 0.00 0.00 58 1009.5
20260831041854 21 224 8.0 19.3 0.00 0.00 0.00 58 1009.5
20260831041823 21 242 8.0 19.3 0.00 0.00 0.00 57 1009.5
20260831041754 21 225 8.0 19.3 0.00 0.00 0.00 58 1009.4
20260831041714 21 228 8.0 19.3 0.00 0.00 0.00 58 1009.5
20260831041702 21 242 8.0 19.3 0.00 0.00 0.00 57 1009.5
20260831041458 22 203 8.0 19.3 0.00 0.00 0.00 57 1009.5
20260831041353 22 259 9.7 19.3 0.00 0.00 0.00 57 1009.5
20260831041253 22 218 9.7 19.3 0.00 0.00 0.00 57 1009.5
20260831041150 22 231 8.0 19.3 0.00 0.00 0.00 57 1009.5
20260831041056 22 228 8.0 17.7 0.00 0.00 0.00 57 1009.5
20260831041051 22 221 8.0 17.7 0.00 0.00 0.00 57 1009.5
20260831040951 22 174 8.0 17.7 0.00 0.00 0.00 57 1009.5
20260831040850 22 212 9.7 17.7 0.00 0.00 0.00 57 1009.5
20260831040750 22 240 9.7 17.7 0.00 0.00 0.00 57 1009.5
20260831040650 22 242 9.7 19.3 0.00 0.00 0.00 56 1009.5
20260831040556 22 197 9.7 19.3 0.00 0.00 0.00 56 1009.4
20260831040544 22 224 9.7 19.3 0.00 0.00 0.00 56 1009.4
20260831040444 22 219 9.7 22.5 0.00 0.00 0.00 56 1009.4
20260831040344 22 253 9.7 22.5 0.00 0.00 0.00 56 1009.4
20260831040245 22 236 9.7 22.5 0.00 0.00 0.00 56 1009.4
20260831040143 22 243 9.7 22.5 0.00 0.00 0.00 56 1009.4
20260831040110 22 226 11.3 22.5 0.00 0.00 0.00 56 1009.4
20260831040052 22 215 8.0 22.5 0.00 0.00 0.00 55 1009.4
20260831040039 22 246 11.3 22.5 0.00 0.00 0.00 56 1009.4
20260831035939 22 229 11.3 22.5 0.00 0.00 0.00 56 1009.3
20260831035930 22 228 9.7 22.5 0.00 0.00 0.00 55 1009.3
20260831035736 22 219 9.7 22.5 0.00 0.00 0.00 55 1009.4
20260831035706 22 248 9.7 22.5 0.00 0.00 0.00 55 1009.3
20260831035532 22 236 8.0 22.5 0.00 0.00 0.00 55 1009.4
20260831035431 22 200 8.0 19.3 0.00 0.00 0.00 55 1009.3
20260831035331 22 218 8.0 19.3 0.00 0.00 0.00 55 1009.3
20260831035231 22 256 8.0 17.7 0.00 0.00 0.00 55 1009.3
20260831035128 22 263 8.0 19.3 0.00 0.00 0.00 55 1009.3
20260831035054 22 217 8.0 19.3 0.00 0.00 0.00 55 1009.3
20260831035023 22 241 8.0 19.3 0.00 0.00 0.00 55 1009.3
20260831034921 22 219 8.0 19.3 0.00 0.00 0.00 55 1009.3
20260831034820 22 250 8.0 19.3 0.00 0.00 0.00 55 1009.3
20260831034721 22 238 8.0 19.3 0.00 0.00 0.00 54 1009.3
20260831034620 23 257 8.0 19.3 0.00 0.00 0.00 54 1009.3
20260831034554 23 238 8.0 19.3 0.00 0.00 0.00 54 1009.3
20260831034515 23 236 8.0 19.3 0.00 0.00 0.00 54 1009.3
20260831034415 23 253 8.0 19.3 0.00 0.00 0.00 54 1009.2
20260831034314 23 239 9.7 20.9 0.00 0.00 0.00 54 1009.2
20260831034214 23 249 9.7 20.9 0.00 0.00 0.00 54 1009.2
20260831034113 23 239 9.7 20.9 0.00 0.00 0.00 54 1009.2
20260831034054 23 239 9.7 20.9 0.00 0.00 0.00 54 1009.2
20260831034007 23 219 9.7 20.9 0.00 0.00 0.00 53 1009.2
20260831033906 23 224 9.7 20.9 0.00 0.00 0.00 53 1009.2
20260831033807 23 259 9.7 20.9 0.00 0.00 0.00 53 1009.2
20260831033707 23 208 9.7 20.9 0.00 0.00 0.00 53 1009.2
20260831033606 23 239 9.7 20.9 0.00 0.00 0.00 53 1009.2
20260831033554 23 247 9.7 20.9 0.00 0.00 0.00 53 1009.2
20260831033503 23 235 9.7 20.9 0.00 0.00 0.00 53 1009.2
20260831033401 23 207 9.7 20.9 0.00 0.00 0.00 53 1009.2
20260831033300 23 233 9.7 19.3 0.00 0.00 0.00 53 1009.2
20260831033201 23 233 9.7 19.3 0.00 0.00 0.00 53 1009.2
20260831033102 23 224 9.7 22.5 0.00 0.00 0.00 52 1009.1
20260831033056 23 236 9.7 22.5 0.00 0.00 0.00 52 1009.1
20260831032958 23 200 9.7 22.5 0.00 0.00 0.00 52 1009.2
20260831032855 23 231 8.0 22.5 0.00 0.00 0.00 52 1009.2
20260831032754 23 212 8.0 22.5 0.00 0.00 0.00 52 1009.2
20260831032708 23 240 8.0 22.5 0.00 0.00 0.00 52 1009.2
20260831032600 23 212 8.0 22.5 0.00 0.00 0.00 52 1009.2
20260831032450 23 229 8.0 22.5 0.00 0.00 0.00 51 1009.1
20260831032354 24 197 8.0 22.5 0.00 0.00 0.00 51 1009.1
20260831032248 24 236 8.0 22.5 0.00 0.00 0.00 51 1009.0
20260831032149 24 250 8.0 17.7 0.00 0.00 0.00 51 1009.1
20260831032055 24 203 6.4 17.7 0.00 0.00 0.00 50 1009.1
20260831032047 24 225 6.4 17.7 0.00 0.00 0.00 50 1009.1
20260831032039 25 218 8.0 19.3 0.00 0.00 0.00 48 1009.0
20260831031947 24 218 8.0 17.7 0.00 0.00 0.00 50 1009.1
20260831031849 24 255 8.0 17.7 0.00 0.00 0.00 49 1009.0
20260831031746 24 207 8.0 19.3 0.00 0.00 0.00 49 1009.0
20260831031711 25 228 8.0 19.3 0.00 0.00 0.00 49 1009.0
20260831031701 25 256 8.0 19.3 0.00 0.00 0.00 49 1009.0
20260831031444 25 256 8.0 19.3 0.00 0.00 0.00 48 1009.0
20260831031344 25 233 8.0 19.3 0.00 0.00 0.00 48 1009.0
20260831031242 25 212 8.0 19.3 0.00 0.00 0.00 48 1009.0
20260831031142 25 235 6.4 19.3 0.00 0.00 0.00 47 1009.0
20260831031055 25 246 8.0 19.3 0.00 0.00 0.00 47 1009.0
20260831031047 25 259 8.0 19.3 0.00 0.00 0.00 47 1009.0
20260831030940 25 222 6.4 19.3 0.00 0.00 0.00 46 1009.0
20260831030840 25 279 6.4 19.3 0.00 0.00 0.00 46 1009.0
20260831030740 25 214 6.4 17.7 0.00 0.00 0.00 46 1009.0
20260831030640 25 256 6.4 17.7 0.00 0.00 0.00 46 1009.0
20260831030540 25 229 4.8 14.5 0.00 0.00 0.00 45 1009.0
20260831030528 25 232 4.8 14.5 0.00 0.00 0.00 45 1009.0
20260831030440 25 246 4.8 14.5 0.00 0.00 0.00 45 1008.9
20260831030339 25 253 4.8 11.3 0.00 0.00 0.00 44 1009.0
20260831030234 25 221 4.8 16.1 0.00 0.00 0.00 44 1008.9
20260831030134 25 256 6.4 17.7 0.00 0.00 0.00 44 1008.9
20260831030034 26 252 6.4 17.7 0.00 0.00 0.00 43 1008.9
20260831030026 26 226 6.4 17.7 0.00 0.00 0.00 43 1008.9
20260831025932 26 274 6.4 17.7 0.00 0.00 0.00 43 1008.9
20260831025831 26 255 6.4 17.7 0.00 0.00 0.00 43 1008.9
20260831025726 26 240 6.4 17.7 0.00 0.00 0.00 43 1008.9
20260831025626 26 224 6.4 17.7 0.00 0.00 0.00 42 1008.9
20260831025528 26 222 6.4 17.7 0.00 0.00 0.00 42 1008.9
20260831025426 26 243 6.4 17.7 0.00 0.00 0.00 42 1008.9
20260831025325 26 249 6.4 17.7 0.00 0.00 0.00 42 1008.9
20260831025225 26 233 6.4 17.7 0.00 0.00 0.00 42 1008.9
20260831025120 26 235 6.4 17.7 0.00 0.00 0.00 42 1009.0
20260831025027 26 228 4.8 14.5 0.00 0.00 0.00 43 1008.9
20260831025021 26 231 4.8 14.5 0.00 0.00 0.00 43 1008.9
20260831024920 26 256 4.8 14.5 0.00 0.00 0.00 42 1008.9
20260831024817 26 229 4.8 14.5 0.00 0.00 0.00 42 1008.9
20260831024718 26 191 4.8 14.5 0.00 0.00 0.00 43 1008.9
20260831024618 26 236 4.8 14.5 0.00 0.00 0.00 42 1008.9
20260831024526 26 181 4.8 14.5 0.00 0.00 0.00 43 1008.9
20260831024516 26 229 4.8 14.5 0.00 0.00 0.00 43 1008.9
20260831024416 26 228 4.8 14.5 0.00 0.00 0.00 42 1008.9
20260831024316 26 226 3.2 14.5 0.00 0.00 0.00 43 1008.8
20260831024216 26 245 4.8 17.7 0.00 0.00 0.00 42 1008.9
20260831024116 26 238 4.8 17.7 0.00 0.00 0.00 42 1008.9
20260831024024 26 225 4.8 17.7 0.00 0.00 0.00 42 1008.9
20260831024016 26 245 4.8 17.7 0.00 0.00 0.00 42 1008.9
20260831023916 26 224 4.8 17.7 0.00 0.00 0.00 42 1008.9
20260831023814 26 203 4.8 17.7 0.00 0.00 0.00 42 1008.9
20260831023714 26 222 4.8 17.7 0.00 0.00 0.00 42 1008.9
20260831023612 26 282 4.8 17.7 0.00 0.00 0.00 41 1008.9
20260831023525 26 285 4.8 17.7 0.00 0.00 0.00 41 1008.9
20260831023512 27 221 4.8 17.7 0.00 0.00 0.00 41 1008.8
20260831023412 27 246 4.8 17.7 0.00 0.00 0.00 41 1008.8
20260831023312 27 259 4.8 17.7 0.00 0.00 0.00 41 1008.8
20260831023212 27 240 4.8 14.5 0.00 0.00 0.00 41 1008.8
20260831023112 27 212 4.8 14.5 0.00 0.00 0.00 41 1008.8
20260831023024 27 246 4.8 12.9 0.00 0.00 0.00 40 1008.8
20260831023013 27 271 4.8 12.9 0.00 0.00 0.00 40 1008.8
20260831022911 27 231 3.2 12.9 0.00 0.00 0.00 40 1008.8
20260831022812 27 238 4.8 12.9 0.00 0.00 0.00 40 1008.8
20260831022754 27 284 4.8 12.9 0.00 0.00 0.00 40 1008.8
20260831022712 27 225 4.8 12.9 0.00 0.00 0.00 40 1008.8
20260831022613 27 231 4.8 12.9 0.00 0.00 0.00 40 1008.8
20260831022512 27 284 4.8 12.9 0.00 0.00 0.00 40 1008.8
20260831022412 27 307 4.8 12.9 0.00 0.00 0.00 40 1008.7
20260831022312 27 271 4.8 12.9 0.00 0.00 0.00 40 1008.7
20260831022210 27 264 3.2 12.9 0.00 0.00 0.00 40 1008.7
20260831022110 27 245 4.8 11.3 0.00 0.00 0.00 40 1008.7
20260831022023 27 250 4.8 11.3 0.00 0.00 0.00 39 1008.7
20260831022008 27 245 4.8 11.3 0.00 0.00 0.00 40 1008.7
20260831021906 27 248 4.8 11.3 0.00 0.00 0.00 39 1008.7
20260831021806 27 242 4.8 11.3 0.00 0.00 0.00 39 1008.7
20260831021706 27 224 4.8 11.3 0.00 0.00 0.00 39 1008.7
20260831021604 27 233 4.8 14.5 0.00 0.00 0.00 39 1008.7
20260831021524 27 231 4.8 14.5 0.00 0.00 0.00 39 1008.7
20260831021504 27 235 4.8 14.5 0.00 0.00 0.00 39 1008.7
20260831021402 27 239 4.8 14.5 0.00 0.00 0.00 39 1008.7
20260831021301 27 218 4.8 14.5 0.00 0.00 0.00 39 1008.7
20260831021202 27 219 6.4 14.5 0.00 0.00 0.00 39 1008.7
20260831021102 27 243 6.4 14.5 0.00 0.00 0.00 39 1008.7
20260831021022 27 205 6.4 14.5 0.00 0.00 0.00 39 1008.7
20260831021003 27 248 6.4 14.5 0.00 0.00 0.00 39 1008.7
20260831020902 27 239 6.4 14.5 0.00 0.00 0.00 38 1008.7
20260831020756 28 233 4.8 14.5 0.00 0.00 0.00 38 1008.7
20260831020656 28 217 4.8 14.5 0.00 0.00 0.00 38 1008.7
20260831020556 28 230 4.8 14.5 0.00 0.00 0.00 37 1008.7
20260831020521 28 240 4.8 14.5 0.00 0.00 0.00 37 1008.7
20260831020457 28 235 4.8 14.5 0.00 0.00 0.00 37 1008.8
20260831020354 28 243 4.8 14.5 0.00 0.00 0.00 36 1008.8
20260831020250 28 269 4.8 14.5 0.00 0.00 0.00 35 1008.8
20260831020150 28 231 4.8 11.3 0.00 0.00 0.00 35 1008.7
20260831020049 28 256 4.8 14.5 0.00 0.00 0.00 35 1008.8
20260831020024 28 238 4.8 14.5 0.00 0.00 0.00 35 1008.8
20260831015950 28 240 4.8 14.5 0.00 0.00 0.00 35 1008.8
20260831015847 28 249 4.8 14.5 0.00 0.00 0.00 35 1008.8
20260831015743 28 238 4.8 14.5 0.00 0.00 0.00 35 1008.8
20260831015644 28 238 6.4 14.5 0.00 0.00 0.00 35 1008.7
20260831015545 28 229 6.4 14.5 0.00 0.00 0.00 35 1008.8
20260831015521 28 246 6.4 14.5 0.00 0.00 0.00 35 1008.8
20260831015443 28 232 6.4 14.5 0.00 0.00 0.00 35 1008.8
20260831015342 28 235 6.4 14.5 0.00 0.00 0.00 34 1008.8
20260831015237 28 236 6.4 14.5 0.00 0.00 0.00 34 1008.8
20260831015138 28 218 6.4 14.5 0.00 0.00 0.00 34 1008.7
20260831015037 28 233 4.8 12.9 0.00 0.00 0.00 35 1008.8
20260831015015 28 219 4.8 12.9 0.00 0.00 0.00 35 1008.7
20260831014937 28 243 4.8 12.9 0.00 0.00 0.00 35 1008.7
20260831014836 28 263 4.8 12.9 0.00 0.00 0.00 35 1008.8
20260831014731 28 260 4.8 12.9 0.00 0.00 0.00 35 1008.8
20260831014631 28 288 4.8 12.9 0.00 0.00 0.00 34 1008.7
20260831014531 28 236 4.8 14.5 0.00 0.00 0.00 35 1008.8
20260831014510 28 198 4.8 14.5 0.00 0.00 0.00 35 1008.8
20260831014431 28 207 4.8 14.5 0.00 0.00 0.00 35 1008.8
20260831014330 28 219 4.8 14.5 0.00 0.00 0.00 36 1008.7
20260831014234 28 235 6.4 14.5 0.00 0.00 0.00 35 1008.7
20260831014226 28 250 6.4 16.1 0.00 0.00 0.00 35 1008.7
20260831014129 28 232 6.4 16.1 0.00 0.00 0.00 35 1008.7
20260831014029 28 243 6.4 16.1 0.00 0.00 0.00 35 1008.8
20260831013927 28 259 6.4 16.1 0.00 0.00 0.00 35 1008.7
20260831013824 28 236 6.4 16.1 0.00 0.00 0.00 35 1008.7
20260831013719 28 219 6.4 16.1 0.00 0.00 0.00 35 1008.7
20260831013619 28 248 6.4 16.1 0.00 0.00 0.00 35 1008.7
20260831013521 29 228 4.8 16.1 0.00 0.00 0.00 35 1008.7
20260831013457 29 260 4.8 16.1 0.00 0.00 0.00 35 1008.7
20260831013418 29 205 4.8 16.1 0.00 0.00 0.00 35 1008.7
20260831013321 29 259 4.8 16.1 0.00 0.00 0.00 35 1008.7
20260831013215 29 243 3.2 16.1 0.00 0.00 0.00 35 1008.7
20260831013114 29 253 3.2 11.3 0.00 0.00 0.00 36 1008.7
20260831013015 29 235 3.2 8.0 0.00 0.00 0.00 36 1008.7
20260831012951 29 248 3.2 6.4 0.00 0.00 0.00 36 1008.7
20260831012915 29 236 3.2 8.0 0.00 0.00 0.00 36 1008.7
20260831012812 29 212 3.2 8.0 0.00 0.00 0.00 36 1008.7
20260831012707 29 228 3.2 8.0 0.00 0.00 0.00 35 1008.7
20260831012606 29 228 3.2 16.1 0.00 0.00 0.00 35 1008.7
20260831012507 29 225 3.2 16.1 0.00 0.00 0.00 35 1008.7
20260831012445 29 223 3.2 16.1 0.00 0.00 0.00 35 1008.7
20260831012407 29 233 4.8 16.1 0.00 0.00 0.00 35 1008.7
20260831012306 29 239 4.8 16.1 0.00 0.00 0.00 35 1008.8
20260831012206 29 238 4.8 16.1 0.00 0.00 0.00 37 1008.8
20260831012105 29 238 4.8 16.1 0.00 0.00 0.00 37 1008.7
20260831012003 29 225 3.2 16.1 0.00 0.00 0.00 36 1008.8
20260831011939 29 236 3.2 16.1 0.00 0.00 0.00 36 1008.8
20260831011901 29 227 3.2 16.1 0.00 0.00 0.00 36 1008.8
20260831011800 29 271 4.8 16.1 0.00 0.00 0.00 36 1008.8
20260831011702 29 267 3.2 16.1 0.00 0.00 0.00 36 1008.7
20260831011600 29 226 3.2 14.5 0.00 0.00 0.00 36 1008.8
20260831011459 29 191 4.8 14.5 0.00 0.00 0.00 35 1008.8
20260831011433 29 238 4.8 14.5 0.00 0.00 0.00 35 1008.8
20260831011423 29 282 6.4 16.1 0.00 0.00 0.00 35 1008.8
20260831011357 29 284 4.8 14.5 0.00 0.00 0.00 35 1008.8
20260831011305 29 239 4.8 14.5 0.00 0.00 0.00 35 1008.8
20260831011151 29 226 4.8 14.5 0.00 0.00 0.00 35 1008.8
20260831011052 29 238 4.8 14.5 0.00 0.00 0.00 35 1008.8
20260831011044 29 283 6.4 16.1 0.00 0.00 0.00 35 1008.8
20260831010848 29 231 6.4 16.1 0.00 0.00 0.00 35 1008.8
20260831010749 30 233 4.8 16.1 0.00 0.00 0.00 35 1008.8
20260831010720 30 243 4.8 16.1 0.00 0.00 0.00 35 1008.8
20260831010549 30 266 6.4 16.1 0.00 0.00 0.00 35 1008.8
20260831010447 29 226 6.4 16.1 0.00 0.00 0.00 35 1008.8
20260831010434 29 232 6.4 16.1 0.00 0.00 0.00 35 1008.8
20260831010345 29 231 6.4 19.3 0.00 0.00 0.00 35 1008.8
20260831010242 29 222 8.0 19.3 0.00 0.00 0.00 35 1008.8
20260831010157 30 233 6.4 19.3 0.00 0.00 0.00 35 1008.8
20260831010137 29 284 6.4 19.3 0.00 0.00 0.00 34 1008.7
20260831010052 30 236 6.4 19.3 0.00 0.00 0.00 35 1008.8
20260831010042 30 233 6.4 19.3 0.00 0.00 0.00 35 1008.8
20260831005837 30 233 8.0 19.3 0.00 0.00 0.00 35 1008.8
20260831005736 30 245 8.0 19.3 0.00 0.00 0.00 35 1008.8
20260831005633 30 250 8.0 19.3 0.00 0.00 0.00 34 1008.8
20260831005531 30 208 8.0 19.3 0.00 0.00 0.00 34 1008.8
20260831005436 30 221 8.0 19.3 0.00 0.00 0.00 34 1008.8
20260831005431 30 245 8.0 19.3 0.00 0.00 0.00 34 1008.8
20260831005331 30 226 8.0 19.3 0.00 0.00 0.00 34 1008.8
20260831005230 30 231 8.0 19.3 0.00 0.00 0.00 34 1008.8
20260831005123 30 250 8.0 19.3 0.00 0.00 0.00 34 1008.8
20260831005022 30 256 8.0 19.3 0.00 0.00 0.00 34 1008.8
20260831004935 30 240 8.0 19.3 0.00 0.00 0.00 33 1008.8
20260831004922 30 143 8.0 19.3 0.00 0.00 0.00 33 1008.8
20260831004823 30 222 6.4 19.3 0.00 0.00 0.00 33 1008.8
20260831004722 30 228 6.4 16.1 0.00 0.00 0.00 34 1008.8
20260831004617 30 240 6.4 16.1 0.00 0.00 0.00 34 1008.8
20260831004517 30 264 6.4 16.1 0.00 0.00 0.00 34 1008.9
20260831004434 30 253 6.4 16.1 0.00 0.00 0.00 34 1008.9
20260831004417 30 256 6.4 16.1 0.00 0.00 0.00 34 1008.9
20260831004317 30 236 6.4 16.1 0.00 0.00 0.00 34 1008.9
20260831004215 30 144 6.4 16.1 0.00 0.00 0.00 34 1008.9
20260831004106 30 247 4.8 16.1 0.00 0.00 0.00 34 1008.9
20260831004006 30 245 6.4 16.1 0.00 0.00 0.00 35 1008.9
20260831003934 30 231 6.4 16.1 0.00 0.00 0.00 35 1008.9
20260831003905 30 236 4.8 16.1 0.00 0.00 0.00 34 1008.9
20260831003806 30 242 4.8 16.1 0.00 0.00 0.00 34 1008.9
20260831003705 30 226 6.4 16.1 0.00 0.00 0.00 34 1008.9
20260831003602 30 160 6.4 16.1 0.00 0.00 0.00 34 1008.9
20260831003500 30 188 6.4 16.1 0.00 0.00 0.00 34 1008.9
20260831003434 30 190 6.4 16.1 0.00 0.00 0.00 34 1008.9
20260831003400 30 212 6.4 16.1 0.00 0.00 0.00 35 1008.8
20260831003300 30 210 4.8 16.1 0.00 0.00 0.00 34 1008.9
20260831003157 30 210 4.8 12.9 0.00 0.00 0.00 35 1008.8
20260831003050 30 236 6.4 14.5 0.00 0.00 0.00 35 1008.8
20260831002950 30 243 6.4 14.5 0.00 0.00 0.00 35 1008.8
20260831002932 30 213 6.4 14.5 0.00 0.00 0.00 35 1008.8
20260831002850 30 226 6.4 14.5 0.00 0.00 0.00 34 1008.9
20260831002750 30 238 6.4 16.1 0.00 0.00 0.00 34 1008.8
20260831002649 30 235 6.4 16.1 0.00 0.00 0.00 34 1008.8
20260831002544 30 235 6.4 16.1 0.00 0.00 0.00 34 1008.8
20260831002444 30 204 6.4 16.1 0.00 0.00 0.00 35 1008.8
20260831002430 30 155 6.4 16.1 0.00 0.00 0.00 35 1008.8
20260831002344 30 253 6.4 17.7 0.00 0.00 0.00 35 1008.8
20260831002244 30 236 8.0 17.7 0.00 0.00 0.00 35 1008.8
20260831002202 30 240 8.0 17.7 0.00 0.00 0.00 35 1008.9
20260831002142 30 271 8.0 17.7 0.00 0.00 0.00 35 1008.9
20260831002046 30 256 8.0 17.7 0.00 0.00 0.00 35 1008.9
20260831002038 30 266 8.0 17.7 0.00 0.00 0.00 35 1008.9
20260831001912 30 246 6.4 20.9 0.00 0.00 0.00 36 1008.9
20260831001836 30 232 8.0 17.7 0.00 0.00 0.00 36 1008.9
20260831001758 30 249 8.0 20.9 0.00 0.00 0.00 35 1008.8
20260831001636 30 215 8.0 20.9 0.00 0.00 0.00 35 1008.8
20260831001545 30 208 8.0 20.9 0.00 0.00 0.00 35 1008.9
20260831001537 30 246 6.4 20.9 0.00 0.00 0.00 36 1008.9
20260831001332 30 257 6.4 20.9 0.00 0.00 0.00 36 1008.9
20260831001230 30 167 6.4 20.9 0.00 0.00 0.00 36 1008.9
20260831001128 30 219 6.4 20.9 0.00 0.00 0.00 35 1008.9
20260831001020 30 229 4.8 20.9 0.00 0.00 0.00 35 1009.0
20260831000930 31 231 4.8 20.9 0.00 0.00 0.00 35 1009.0
20260831000919 31 252 4.8 20.9 0.00 0.00 0.00 35 1009.0
20260831000820 31 239 4.8 20.9 0.00 0.00 0.00 35 1009.0
20260831000720 31 238 4.8 14.5 0.00 0.00 0.00 36 1009.0
20260831000619 31 232 4.8 14.5 0.00 0.00 0.00 36 1009.0
20260831000514 31 233 4.8 11.3 0.00 0.00 0.00 36 1009.0
20260831000432 31 229 4.8 11.3 0.00 0.00 0.00 36 1009.0
20260831000414 31 240 4.8 11.3 0.00 0.00 0.00 36 1009.0
20260831000314 31 195 4.8 12.9 0.00 0.00 0.00 36 1009.0
20260831000214 31 238 4.8 12.9 0.00 0.00 0.00 36 1009.0
20260831000112 31 239 6.4 12.9 0.00 0.00 0.00 36 1009.0
20260831000006 31 194 6.4 14.5 0.00 0.00 0.00 36 1009.0
20260830235932 31 228 6.4 14.5 0.00 0.00 0.00 36 1009.0
20260830235905 31 197 6.4 14.5 0.00 0.00 0.00 35 1009.0
20260830235806 31 228 4.8 14.5 0.00 0.00 0.00 35 1009.0
20260830235705 31 214 4.8 14.5 0.00 0.00 0.00 35 1009.0
20260830235606 31 192 4.8 14.5 0.00 0.00 0.00 35 1009.0
20260830235502 31 173 4.8 14.5 0.00 0.00 0.00 35 1009.1
20260830235426 31 202 4.8 14.5 0.00 0.00 0.00 35 1009.1
20260830235400 31 217 3.2 14.5 0.00 0.00 0.00 34 1009.0
20260830235300 31 236 3.2 14.5 0.00 0.00 0.00 34 1009.0
20260830235200 31 239 3.2 14.5 0.00 0.00 0.00 34 1009.0
20260830235059 32 250 3.2 14.5 0.00 0.00 0.00 34 1009.0
20260830234955 32 235 3.2 8.0 0.00 0.00 0.00 35 1009.0
20260830234920 32 236 3.2 9.7 0.00 0.00 0.00 34 1009.0
20260830234854 32 236 3.2 9.7 0.00 0.00 0.00 34 1009.0
20260830234754 32 233 4.8 12.9 0.00 0.00 0.00 35 1009.1
20260830234653 32 239 4.8 12.9 0.00 0.00 0.00 34 1009.1
20260830234554 32 155 4.8 12.9 0.00 0.00 0.00 34 1009.1
20260830234450 32 155 4.8 12.9 0.00 0.00 0.00 34 1009.1
20260830234414 32 214 4.8 12.9 0.00 0.00 0.00 34 1009.1
20260830234350 32 135 4.8 12.9 0.00 0.00 0.00 34 1009.1
20260830234250 32 115 4.8 12.9 0.00 0.00 0.00 34 1009.1
20260830234150 32 229 4.8 12.9 0.00 0.00 0.00 34 1009.1
20260830234139 32 238 4.8 12.9 0.00 0.00 0.00 33 1009.1
20260830234048 32 173 4.8 12.9 0.00 0.00 0.00 34 1009.1
20260830234021 32 118 4.8 12.9 0.00 0.00 0.00 33 1009.1
20260830233842 32 238 3.2 12.9 0.00 0.00 0.00 34 1009.1
20260830233742 32 219 3.2 11.3 0.00 0.00 0.00 34 1009.1
20260830233643 32 136 3.2 9.7 0.00 0.00 0.00 34 1009.1
20260830233637 32 233 3.2 8.0 0.00 0.00 0.00 33 1009.1
20260830233541 32 117 3.2 9.7 0.00 0.00 0.00 33 1009.1
20260830233522 32 153 3.2 8.0 0.00 0.00 0.00 34 1009.1
20260830233340 32 233 1.6 8.0 0.00 0.00 0.00 33 1009.1
20260830233241 32 224 1.6 8.0 0.00 0.00 0.00 31 1009.1
20260830233138 32 235 1.6 8.0 0.00 0.00 0.00 31 1009.1
20260830233035 32 236 1.6 8.0 0.00 0.00 0.00 31 1009.1
20260830232934 32 92 1.6 8.0 0.00 0.00 0.00 30 1009.2
20260830232926 32 192 1.6 8.0 0.00 0.00 0.00 30 1009.2
20260830232830 32 214 1.6 8.0 0.00 0.00 0.00 31 1009.1
20260830232730 32 214 1.6 8.0 0.00 0.00 0.00 30 1009.2
20260830232630 32 298 1.6 6.4 0.00 0.00 0.00 31 1009.2
20260830232530 32 215 1.6 6.4 0.00 0.00 0.00 32 1009.2
20260830232428 32 256 1.6 6.4 0.00 0.00 0.00 32 1009.2
20260830232414 32 236 1.6 6.4 0.00 0.00 0.00 33 1009.2
20260830232328 32 236 1.6 6.4 0.00 0.00 0.00 33 1009.2
20260830232228 32 236 1.6 6.4 0.00 0.00 0.00 32 1009.2
20260830232127 32 236 1.6 6.4 0.00 0.00 0.00 32 1009.3
20260830232023 32 236 1.6 6.4 0.00 0.00 0.00 32 1009.3
20260830231924 32 236 1.6 6.4 0.00 0.00 0.00 31 1009.3
20260830231911 32 240 1.6 6.4 0.00 0.00 0.00 31 1009.3
20260830231822 32 240 1.6 6.4 0.00 0.00 0.00 32 1009.3
20260830231720 32 238 1.6 8.0 0.00 0.00 0.00 32 1009.3
20260830231620 32 131 3.2 11.3 0.00 0.00 0.00 31 1009.3
20260830231517 32 240 3.2 11.3 0.00 0.00 0.00 33 1009.3
20260830231411 32 236 3.2 12.9 0.00 0.00 0.00 33 1009.3
20260830231406 32 207 3.2 12.9 0.00 0.00 0.00 32 1009.4
20260830231314 32 219 3.2 12.9 0.00 0.00 0.00 33 1009.3
20260830231246 32 233 3.2 12.9 0.00 0.00 0.00 33 1009.3
20260830231114 32 207 3.2 12.9 0.00 0.00 0.00 32 1009.3
20260830231024 32 207 3.2 12.9 0.00 0.00 0.00 32 1009.3
20260830230908 32 207 3.2 12.9 0.00 0.00 0.00 32 1009.4
20260830230807 32 219 3.2 12.9 0.00 0.00 0.00 32 1009.4
20260830230708 32 228 1.6 12.9 0.00 0.00 0.00 31 1009.4
20260830230606 32 228 1.6 12.9 0.00 0.00 0.00 32 1009.4
20260830230505 32 60 1.6 6.4 0.00 0.00 0.00 33 1009.4
20260830230410 32 221 1.6 6.4 0.00 0.00 0.00 33 1009.4
20260830230402 32 207 1.6 6.4 0.00 0.00 0.00 33 1009.4
20260830230300 32 133 1.6 6.4 0.00 0.00 0.00 33 1009.4
20260830230200 32 133 1.6 6.4 0.00 0.00 0.00 34 1009.5
20260830230100 32 85 3.2 6.4 0.00 0.00 0.00 34 1009.4
20260830225959 32 85 3.2 6.4 0.00 0.00 0.00 33 1009.5
20260830225910 32 86 3.2 8.0 0.00 0.00 0.00 34 1009.5
20260830225900 32 87 3.2 8.0 0.00 0.00 0.00 34 1009.5
20260830225758 32 137 3.2 8.0 0.00 0.00 0.00 34 1009.5
20260830225656 32 136 3.2 8.0 0.00 0.00 0.00 34 1009.5
20260830225638 32 231 3.2 11.3 0.00 0.00 0.00 34 1009.6
20260830225556 32 156 3.2 8.0 0.00 0.00 0.00 34 1009.5
20260830225521 32 172 3.2 11.3 0.00 0.00 0.00 34 1009.6
20260830225349 32 232 3.2 11.3 0.00 0.00 0.00 34 1009.6
20260830225250 32 233 3.2 11.3 0.00 0.00 0.00 33 1009.6
20260830225148 32 180 3.2 11.3 0.00 0.00 0.00 34 1009.6
20260830225048 32 228 3.2 11.3 0.00 0.00 0.00 35 1009.6
20260830224945 32 198 3.2 11.3 0.00 0.00 0.00 35 1009.6
20260830224910 31 202 3.2 11.3 0.00 0.00 0.00 35 1009.6
20260830224842 31 219 3.2 11.3 0.00 0.00 0.00 35 1009.6
20260830224740 31 207 3.2 11.3 0.00 0.00 0.00 34 1009.6
20260830224640 31 243 3.2 11.3 0.00 0.00 0.00 35 1009.6
20260830224540 31 196 3.2 11.3 0.00 0.00 0.00 34 1009.6
20260830224439 31 177 3.2 6.4 0.00 0.00 0.00 34 1009.6
20260830224410 31 307 3.2 6.4 0.00 0.00 0.00 34 1009.6
20260830224336 31 225 3.2 6.4 0.00 0.00 0.00 34 1009.6
20260830224236 31 226 3.2 6.4 0.00 0.00 0.00 33 1009.6
20260830224136 31 229 3.2 9.7 0.00 0.00 0.00 33 1009.7
20260830224036 31 218 3.2 9.7 0.00 0.00 0.00 33 1009.7
20260830223909 31 235 3.2 9.7 0.00 0.00 0.00 34 1009.7
20260830223830 31 228 3.2 9.7 0.00 0.00 0.00 35 1009.7
20260830223728 31 235 3.2 9.7 0.00 0.00 0.00 34 1009.8
20260830223633 31 135 3.2 9.7 0.00 0.00 0.00 35 1009.8
20260830223628 31 236 3.2 9.7 0.00 0.00 0.00 34 1009.7
20260830223528 31 208 3.2 9.7 0.00 0.00 0.00 34 1009.8
20260830223518 31 226 3.2 9.7 0.00 0.00 0.00 35 1009.8
20260830223323 31 217 3.2 9.7 0.00 0.00 0.00 35 1009.8
20260830223222 31 238 3.2 9.7 0.00 0.00 0.00 35 1009.8
20260830223122 31 233 3.2 8.0 0.00 0.00 0.00 35 1009.8
20260830223022 31 253 3.2 8.0 0.00 0.00 0.00 36 1009.8
20260830222910 31 250 3.2 8.0 0.00 0.00 0.00 36 1009.8
20260830222819 31 236 3.2 9.7 0.00 0.00 0.00 36 1009.8
20260830222720 31 170 3.2 14.5 0.00 0.00 0.00 35 1009.9
20260830222618 31 159 4.8 14.5 0.00 0.00 0.00 35 1009.9
20260830222519 31 124 4.8 14.5 0.00 0.00 0.00 34 1009.9
20260830222416 31 149 4.8 14.5 0.00 0.00 0.00 34 1010.0
20260830222408 31 145 4.8 14.5 0.00 0.00 0.00 34 1010.0
20260830222309 31 245 4.8 14.5 0.00 0.00 0.00 35 1010.0
20260830222210 31 244 4.8 14.5 0.00 0.00 0.00 34 1010.0
20260830222110 31 244 4.8 14.5 0.00 0.00 0.00 34 1010.1
20260830222008 31 245 4.8 14.5 0.00 0.00 0.00 32 1010.0
20260830221909 31 239 4.8 14.5 0.00 0.00 0.00 33 1010.1
20260830221802 31 240 3.2 14.5 0.00 0.00 0.00 34 1010.0
20260830221702 31 235 3.2 12.9 0.00 0.00 0.00 34 1010.1
20260830221602 31 214 3.2 9.7 0.00 0.00 0.00 35 1010.1
20260830221502 31 219 3.2 9.7 0.00 0.00 0.00 35 1010.1
20260830221406 31 163 3.2 9.7 0.00 0.00 0.00 34 1010.1
20260830221400 31 152 3.2 9.7 0.00 0.00 0.00 34 1010.1
20260830221300 31 219 3.2 9.7 0.00 0.00 0.00 35 1010.1
20260830221158 31 212 3.2 9.7 0.00 0.00 0.00 35 1010.1
20260830221058 31 353 3.2 9.7 0.00 0.00 0.00 36 1010.1
20260830220956 31 285 3.2 9.7 0.00 0.00 0.00 36 1010.2
20260830220904 31 284 4.8 11.3 0.00 0.00 0.00 37 1010.2
20260830220853 31 283 4.8 11.3 0.00 0.00 0.00 37 1010.2
20260830220749 31 293 4.8 11.3 0.00 0.00 0.00 36 1010.2
20260830220648 30 304 4.8 11.3 0.00 0.00 0.00 35 1010.2
20260830220548 30 141 4.8 11.3 0.00 0.00 0.00 34 1010.2
20260830220447 31 225 4.8 11.3 0.00 0.00 0.00 34 1010.3
20260830220402 31 217 4.8 11.3 0.00 0.00 0.00 35 1010.3
20260830220347 31 224 4.8 11.3 0.00 0.00 0.00 35 1010.3
20260830220242 31 160 3.2 11.3 0.00 0.00 0.00 35 1010.3
20260830220142 31 179 3.2 11.3 0.00 0.00 0.00 35 1010.3
20260830220043 31 219 3.2 11.3 0.00 0.00 0.00 36 1010.3
20260830215942 31 250 1.6 11.3 0.00 0.00 0.00 35 1010.4
20260830215903 31 239 1.6 11.3 0.00 0.00 0.00 35 1010.3
20260830215842 31 194 1.6 11.3 0.00 0.00 0.00 36 1010.3
20260830215740 31 238 1.6 6.4 0.00 0.00 0.00 36 1010.4
20260830215640 31 229 1.6 11.3 0.00 0.00 0.00 36 1010.4
20260830215542 31 232 1.6 11.3 0.00 0.00 0.00 35 1010.4
20260830215438 31 232 1.6 11.3 0.00 0.00 0.00 36 1010.4
20260830215402 31 229 3.2 11.3 0.00 0.00 0.00 37 1010.5
20260830215343 31 236 3.2 11.3 0.00 0.00 0.00 38 1010.6
20260830215335 31 222 3.2 11.3 0.00 0.00 0.00 38 1010.5
20260830215235 31 219 3.2 11.3 0.00 0.00 0.00 38 1010.5
20260830215226 31 218 3.2 11.3 0.00 0.00 0.00 38 1010.6
20260830215034 31 217 3.2 11.3 0.00 0.00 0.00 38 1010.6
20260830215010 31 236 3.2 11.3 0.00 0.00 0.00 37 1010.6
20260830214829 31 236 3.2 11.3 0.00 0.00 0.00 37 1010.6
20260830214724 31 231 3.2 11.3 0.00 0.00 0.00 36 1010.6
20260830214624 31 240 3.2 9.7 0.00 0.00 0.00 37 1010.6
20260830214524 31 278 1.6 9.7 0.00 0.00 0.00 38 1010.6
20260830214424 31 233 1.6 6.4 0.00 0.00 0.00 40 1010.6
20260830214403 30 232 3.2 6.4 0.00 0.00 0.00 40 1010.6
20260830214323 30 232 3.2 9.7 0.00 0.00 0.00 39 1010.6
20260830214220 30 232 3.2 9.7 0.00 0.00 0.00 40 1010.6
20260830214118 31 219 3.2 9.7 0.00 0.00 0.00 39 1010.6
20260830214018 31 231 3.2 9.7 0.00 0.00 0.00 39 1010.6
20260830213918 30 144 1.6 9.7 0.00 0.00 0.00 40 1010.7
20260830213903 30 144 1.6 9.7 0.00 0.00 0.00 39 1010.7
20260830213817 30 106 1.6 9.7 0.00 0.00 0.00 39 1010.7
20260830213712 30 225 1.6 9.7 0.00 0.00 0.00 40 1010.7
20260830213612 30 116 1.6 9.7 0.00 0.00 0.00 40 1010.8
20260830213511 30 117 1.6 9.7 0.00 0.00 0.00 40 1010.8
20260830213411 30 173 1.6 9.7 0.00 0.00 0.00 40 1010.8
20260830213401 30 180 1.6 9.7 0.00 0.00 0.00 40 1010.8
20260830213311 30 228 1.6 9.7 0.00 0.00 0.00 40 1010.8
20260830213210 30 112 1.6 9.7 0.00 0.00 0.00 42 1010.8
20260830213120 30 226 3.2 9.7 0.00 0.00 0.00 42 1010.9
20260830213110 30 314 1.6 9.7 0.00 0.00 0.00 42 1010.8
20260830213016 30 309 1.6 9.7 0.00 0.00 0.00 41 1010.8
20260830213007 30 305 3.2 9.7 0.00 0.00 0.00 42 1010.9
20260830212806 30 226 3.2 9.7 0.00 0.00 0.00 42 1010.9
20260830212702 30 226 3.2 9.7 0.00 0.00 0.00 43 1010.9
20260830212600 30 226 4.8 9.7 0.00 0.00 0.00 42 1010.9
20260830212500 29 226 4.8 11.3 0.00 0.00 0.00 42 1010.9
20260830212406 29 235 4.8 11.3 0.00 0.00 0.00 41 1010.9
20260830212358 29 229 4.8 11.3 0.00 0.00 0.00 41 1010.9
20260830212300 29 236 4.8 11.3 0.00 0.00 0.00 42 1010.9
20260830212158 29 229 4.8 11.3 0.00 0.00 0.00 42 1010.9
20260830212058 29 228 4.8 11.3 0.00 0.00 0.00 43 1010.9
20260830211958 29 235 6.4 14.5 0.00 0.00 0.00 43 1011.0
20260830211902 28 217 6.4 14.5 0.00 0.00 0.00 42 1011.0
20260830211856 29 217 6.4 14.5 0.00 0.00 0.00 42 1011.0
20260830211753 29 176 6.4 14.5 0.00 0.00 0.00 43 1011.0
20260830211649 29 219 6.4 14.5 0.00 0.00 0.00 43 1011.0
20260830211548 29 204 4.8 14.5 0.00 0.00 0.00 43 1011.0
20260830211449 29 218 6.4 14.5 0.00 0.00 0.00 43 1011.0
20260830211357 29 134 6.4 14.5 0.00 0.00 0.00 43 1011.1
20260830211348 29 142 6.4 14.5 0.00 0.00 0.00 43 1011.1
20260830211247 29 214 4.8 14.5 0.00 0.00 0.00 43 1011.0
20260830211144 29 226 4.8 14.5 0.00 0.00 0.00 43 1011.1
20260830211042 29 246 4.8 14.5 0.00 0.00 0.00 42 1011.0
20260830210942 30 228 4.8 12.9 0.00 0.00 0.00 41 1011.1
20260830210856 30 238 4.8 12.9 0.00 0.00 0.00 42 1011.0
20260830210842 30 255 4.8 12.9 0.00 0.00 0.00 42 1011.0
20260830210741 30 239 3.2 12.9 0.00 0.00 0.00 42 1011.0
20260830210638 30 278 3.2 12.9 0.00 0.00 0.00 42 1011.1
20260830210536 30 204 3.2 12.9 0.00 0.00 0.00 42 1011.1
20260830210435 29 188 3.2 11.3 0.00 0.00 0.00 42 1011.1
20260830210356 29 222 3.2 8.0 0.00 0.00 0.00 43 1011.1
20260830210336 29 318 3.2 8.0 0.00 0.00 0.00 43 1011.1
20260830210235 29 309 3.2 8.0 0.00 0.00 0.00 43 1011.1
20260830210130 29 138 3.2 8.0 0.00 0.00 0.00 44 1011.1
20260830210030 29 213 3.2 8.0 0.00 0.00 0.00 43 1011.2
20260830205931 29 141 3.2 12.9 0.00 0.00 0.00 42 1011.2
20260830205856 29 217 3.2 12.9 0.00 0.00 0.00 43 1011.2
20260830205830 29 222 3.2 12.9 0.00 0.00 0.00 43 1011.2
20260830205728 29 231 3.2 14.5 0.00 0.00 0.00 45 1011.2
20260830205622 29 213 4.8 14.5 0.00 0.00 0.00 45 1011.2
20260830205522 28 245 4.8 17.7 0.00 0.00 0.00 44 1011.2
20260830205422 28 245 4.8 17.7 0.00 0.00 0.00 44 1011.2
20260830205355 28 193 4.8 17.7 0.00 0.00 0.00 44 1011.2
20260830205322 28 197 4.8 17.7 0.00 0.00 0.00 45 1011.2
20260830205221 28 236 4.8 17.7 0.00 0.00 0.00 45 1011.3
20260830205118 28 238 4.8 17.7 0.00 0.00 0.00 44 1011.3
20260830205016 28 229 4.8 17.7 0.00 0.00 0.00 44 1011.3
20260830204916 28 231 3.2 17.7 0.00 0.00 0.00 44 1011.3
20260830204858 29 248 3.2 17.7 0.00 0.00 0.00 44 1011.3
20260830204816 29 249 3.2 17.7 0.00 0.00 0.00 43 1011.3
20260830204713 29 256 3.2 17.7 0.00 0.00 0.00 44 1011.2
20260830204608 29 201 1.6 14.5 0.00 0.00 0.00 44 1011.3
20260830204508 29 218 1.6 14.5 0.00 0.00 0.00 44 1011.3
20260830204408 29 197 3.2 14.5 0.00 0.00 0.00 44 1011.4
20260830204352 29 198 3.2 14.5 0.00 0.00 0.00 44 1011.4
20260830204308 29 270 3.2 14.5 0.00 0.00 0.00 45 1011.3
20260830204205 28 146 3.2 14.5 0.00 0.00 0.00 44 1011.4
20260830204100 28 212 3.2 14.5 0.00 0.00 0.00 45 1011.4
20260830204001 28 276 3.2 14.5 0.00 0.00 0.00 45 1011.4
20260830203859 28 242 3.2 14.5 0.00 0.00 0.00 44 1011.4
20260830203852 28 229 3.2 14.5 0.00 0.00 0.00 44 1011.4
20260830203800 28 245 3.2 14.5 0.00 0.00 0.00 45 1011.4
20260830203659 28 239 3.2 11.3 0.00 0.00 0.00 46 1011.4
20260830203600 28 169 3.2 11.3 0.00 0.00 0.00 45 1011.4
20260830203458 28 169 4.8 11.3 0.00 0.00 0.00 44 1011.4
20260830203357 28 169 3.2 11.3 0.00 0.00 0.00 44 1011.4
20260830203350 28 146 3.2 11.3 0.00 0.00 0.00 44 1011.4
20260830203256 28 217 3.2 11.3 0.00 0.00 0.00 45 1011.4
20260830203153 28 145 3.2 11.3 0.00 0.00 0.00 44 1011.5
20260830203048 28 200 3.2 11.3 0.00 0.00 0.00 44 1011.5
20260830202949 28 205 3.2 11.3 0.00 0.00 0.00 44 1011.5
20260830202854 29 242 3.2 11.3 0.00 0.00 0.00 44 1011.5
20260830202848 29 239 3.2 11.3 0.00 0.00 0.00 44 1011.5
20260830202748 29 217 3.2 11.3 0.00 0.00 0.00 44 1011.5
20260830202647 28 219 3.2 11.3 0.00 0.00 0.00 44 1011.6
20260830202542 28 208 3.2 11.3 0.00 0.00 0.00 45 1011.6
20260830202442 28 287 1.6 11.3 0.00 0.00 0.00 45 1011.5
20260830202341 28 141 3.2 11.3 0.00 0.00 0.00 45 1011.6
20260830202242 28 131 3.2 11.3 0.00 0.00 0.00 44 1011.6
20260830202141 28 208 3.2 11.3 0.00 0.00 0.00 45 1011.6
20260830202036 28 214 3.2 11.3 0.00 0.00 0.00 45 1011.6
20260830201936 28 248 3.2 9.7 0.00 0.00 0.00 47 1011.6
20260830201836 28 286 3.2 9.7 0.00 0.00 0.00 47 1011.6
20260830201736 28 224 3.2 8.0 0.00 0.00 0.00 47 1011.6
20260830201636 28 150 1.6 8.0 0.00 0.00 0.00 46 1011.6
20260830201614 28 321 1.6 8.0 0.00 0.00 0.00 46 1011.6
20260830201530 28 347 1.6 8.0 0.00 0.00 0.00 47 1011.6
20260830201501 28 347 1.6 8.0 0.00 0.00 0.00 46 1011.6
20260830201330 28 293 1.6 8.0 0.00 0.00 0.00 46 1011.6
20260830201230 28 325 1.6 8.0 0.00 0.00 0.00 46 1011.6
20260830201129 28 181 1.6 6.4 0.00 0.00 0.00 46 1011.7
20260830201025 28 208 1.6 6.4 0.00 0.00 0.00 46 1011.7
20260830200926 28 307 1.6 6.4 0.00 0.00 0.00 48 1011.7
20260830200848 28 283 1.6 6.4 0.00 0.00 0.00 48 1011.7
20260830200826 28 283 1.6 6.4 0.00 0.00 0.00 47 1011.7
20260830200726 28 285 1.6 6.4 0.00 0.00 0.00 48 1011.7
20260830200623 28 270 1.6 6.4 0.00 0.00 0.00 48 1011.7
20260830200518 28 229 1.6 6.4 0.00 0.00 0.00 48 1011.7
20260830200418 28 218 1.6 6.4 0.00 0.00 0.00 48 1011.7
20260830200345 28 302 3.2 6.4 0.00 0.00 0.00 48 1011.7
20260830200318 28 302 3.2 6.4 0.00 0.00 0.00 47 1011.7
20260830200218 28 212 3.2 6.4 0.00 0.00 0.00 48 1011.7
20260830200117 27 339 3.2 9.7 0.00 0.00 0.00 48 1011.7
20260830200014 27 339 3.2 9.7 0.00 0.00 0.00 49 1011.8
20260830195914 27 239 3.2 9.7 0.00 0.00 0.00 49 1011.8
20260830195844 27 239 3.2 9.7 0.00 0.00 0.00 49 1011.7
20260830195814 27 231 3.2 9.7 0.00 0.00 0.00 48 1011.7
20260830195712 27 131 3.2 9.7 0.00 0.00 0.00 48 1011.8
20260830195611 27 131 3.2 9.7 0.00 0.00 0.00 47 1011.8
20260830195508 27 228 3.2 9.7 0.00 0.00 0.00 47 1011.8
20260830195408 27 133 1.6 9.7 0.00 0.00 0.00 47 1011.8
20260830195343 27 214 1.6 9.7 0.00 0.00 0.00 47 1011.8
20260830195306 27 193 1.6 9.7 0.00 0.00 0.00 47 1011.8
20260830195206 27 235 1.6 9.7 0.00 0.00 0.00 48 1011.8
20260830195106 27 218 3.2 9.7 0.00 0.00 0.00 49 1011.8
20260830195002 27 218 3.2 9.7 0.00 0.00 0.00 49 1011.8
20260830194900 27 218 3.2 11.3 0.00 0.00 0.00 49 1011.8
20260830194841 27 218 3.2 11.3 0.00 0.00 0.00 48 1011.8
20260830194800 27 214 3.2 11.3 0.00 0.00 0.00 49 1011.9
20260830194700 27 102 1.6 11.3 0.00 0.00 0.00 49 1011.8
20260830194559 27 201 1.6 11.3 0.00 0.00 0.00 49 1011.9
20260830194458 27 228 1.6 11.3 0.00 0.00 0.00 49 1011.9
20260830194358 26 222 1.6 11.3 0.00 0.00 0.00 49 1011.9
20260830194341 26 221 1.6 11.3 0.00 0.00 0.00 50 1011.9
20260830194258 26 224 1.6 11.3 0.00 0.00 0.00 49 1011.9
20260830194155 26 222 1.6 11.3 0.00 0.00 0.00 48 1011.9
20260830194053 27 229 1.6 11.3 0.00 0.00 0.00 48 1012.0
20260830193948 27 238 0.0 11.3 0.00 0.00 0.00 49 1012.0
20260830193836 27 228 1.6 4.8 0.00 0.00 0.00 50 1011.9
20260830193748 27 183 1.6 4.8 0.00 0.00 0.00 50 1012.0
20260830193648 27 128 1.6 4.8 0.00 0.00 0.00 50 1012.0
20260830193547 26 128 1.6 9.7 0.00 0.00 0.00 50 1012.0
20260830193443 26 197 1.6 9.7 0.00 0.00 0.00 50 1012.0
20260830193334 26 197 1.6 9.7 0.00 0.00 0.00 51 1012.0
20260830193242 26 233 1.6 9.7 0.00 0.00 0.00 51 1012.1
20260830193141 26 219 1.6 9.7 0.00 0.00 0.00 52 1012.1
20260830193041 26 222 1.6 9.7 0.00 0.00 0.00 52 1012.1
20260830192938 26 236 1.6 9.7 0.00 0.00 0.00 52 1012.1
20260830192840 26 229 1.6 9.7 0.00 0.00 0.00 52 1012.1
20260830192832 26 228 1.6 9.7 0.00 0.00 0.00 52 1012.1
20260830192736 25 242 1.6 9.7 0.00 0.00 0.00 51 1012.1
20260830192634 25 257 1.6 9.7 0.00 0.00 0.00 52 1012.1
20260830192534 25 156 1.6 8.0 0.00 0.00 0.00 51 1012.1
20260830192428 25 5 1.6 8.0 0.00 0.00 0.00 51 1012.2
20260830192329 25 323 1.6 8.0 0.00 0.00 0.00 52 1012.2
20260830192228 25 332 1.6 8.0 0.00 0.00 0.00 52 1012.2
20260830192128 25 43 1.6 4.8 0.00 0.00 0.00 51 1012.2
20260830192027 26 138 1.6 4.8 0.00 0.00 0.00 50 1012.2
20260830191928 26 335 1.6 4.8 0.00 0.00 0.00 50 1012.3
20260830191826 26 340 1.6 4.8 0.00 0.00 0.00 51 1012.3
20260830191725 26 340 1.6 4.8 0.00 0.00 0.00 51 1012.3
20260830191624 26 96 1.6 4.8 0.00 0.00 0.00 51 1012.3
20260830191605 25 193 1.6 4.8 0.00 0.00 0.00 51 1012.3
20260830191523 26 228 1.6 4.8 0.00 0.00 0.00 51 1012.4
20260830191441 26 263 1.6 4.8 0.00 0.00 0.00 51 1012.3
20260830191316 25 193 1.6 4.8 0.00 0.00 0.00 51 1012.3
20260830191214 25 188 1.6 6.4 0.00 0.00 0.00 51 1012.4
20260830191114 25 177 1.6 6.4 0.00 0.00 0.00 53 1012.4
20260830191013 25 221 1.6 6.4 0.00 0.00 0.00 53 1012.5
20260830190908 25 221 3.2 6.4 0.00 0.00 0.00 53 1012.4
20260830190831 25 221 3.2 6.4 0.00 0.00 0.00 54 1012.4
20260830190807 25 221 3.2 8.0 0.00 0.00 0.00 54 1012.4
20260830190708 25 221 3.2 8.0 0.00 0.00 0.00 53 1012.5
20260830190608 25 211 3.2 8.0 0.00 0.00 0.00 53 1012.5
20260830190506 25 143 3.2 8.0 0.00 0.00 0.00 53 1012.5
20260830190402 25 156 3.2 8.0 0.00 0.00 0.00 54 1012.5
20260830190328 25 148 3.2 8.0 0.00 0.00 0.00 54 1012.5
20260830190302 25 179 3.2 8.0 0.00 0.00 0.00 54 1012.5
20260830190202 24 135 3.2 8.0 0.00 0.00 0.00 55 1012.5
20260830185959 24 129 3.2 8.0 0.00 0.00 0.00 53 1012.6
20260830185858 25 141 3.2 8.0 0.00 0.00 0.00 54 1012.6
20260830185828 25 188 3.2 8.0 0.00 0.00 0.00 53 1012.6
20260830185758 25 224 3.2 8.0 0.00 0.00 0.00 53 1012.6
20260830185657 25 214 3.2 9.7 0.00 0.00 0.00 53 1012.7
20260830185556 25 214 3.2 9.7 0.00 0.00 0.00 53 1012.6
20260830185453 25 217 3.2 9.7 0.00 0.00 0.00 54 1012.6
20260830185348 25 223 3.2 9.7 0.00 0.00 0.00 55 1012.6
20260830185327 25 221 3.2 9.7 0.00 0.00 0.00 55 1012.6
20260830185249 25 204 3.2 9.7 0.00 0.00 0.00 55 1012.6
20260830185149 24 207 3.2 9.7 0.00 0.00 0.00 55 1012.6
20260830185053 24 172 3.2 9.7 0.00 0.00 0.00 55 1012.7
20260830185049 24 144 3.2 9.7 0.00 0.00 0.00 55 1012.6
20260830184948 24 133 3.2 9.7 0.00 0.00 0.00 55 1012.6
20260830184939 24 150 3.2 9.7 0.00 0.00 0.00 55 1012.7
20260830184745 24 217 3.2 8.0 0.00 0.00 0.00 56 1012.7
20260830184644 24 129 1.6 8.0 0.00 0.00 0.00 56 1012.7
20260830184550 24 256 1.6 8.0 0.00 0.00 0.00 56 1012.7
20260830184545 24 156 1.6 8.0 0.00 0.00 0.00 55 1012.7
20260830184448 24 229 1.6 8.0 0.00 0.00 0.00 55 1012.7
20260830184439 24 255 1.6 8.0 0.00 0.00 0.00 56 1012.7
20260830184237 24 327 1.6 6.4 0.00 0.00 0.00 56 1012.7
20260830184137 24 339 1.6 6.4 0.00 0.00 0.00 56 1012.7
20260830184044 23 354 0.0 3.2 0.00 0.00 0.00 57 1012.7
20260830184038 24 339 1.6 6.4 0.00 0.00 0.00 55 1012.7
20260830183937 24 321 1.6 3.2 0.00 0.00 0.00 56 1012.7
20260830183929 24 224 1.6 3.2 0.00 0.00 0.00 55 1012.7
20260830183918 24 214 1.6 3.2 0.00 0.00 0.00 55 1012.7
20260830183735 24 218 1.6 3.2 0.00 0.00 0.00 57 1012.7
20260830183702 23 297 1.6 3.2 0.00 0.00 0.00 57 1012.7
20260830183532 23 295 0.0 3.2 0.00 0.00 0.00 56 1012.7
20260830183443 23 172 0.0 3.2 0.00 0.00 0.00 57 1012.7
20260830183327 23 354 0.0 3.2 0.00 0.00 0.00 57 1012.7
20260830183225 23 354 0.0 3.2 0.00 0.00 0.00 57 1012.7
20260830183124 23 70 0.0 3.2 0.00 0.00 0.00 58 1012.7
20260830183025 23 318 0.0 3.2 0.00 0.00 0.00 58 1012.7
20260830182924 23 318 0.0 3.2 0.00 0.00 0.00 58 1012.7
20260830182818 23 319 1.6 4.8 0.00 0.00 0.00 58 1012.7
20260830182719 23 347 1.6 8.0 0.00 0.00 0.00 59 1012.7
20260830182618 23 347 1.6 8.0 0.00 0.00 0.00 59 1012.7
20260830182554 23 319 1.6 8.0 0.00 0.00 0.00 58 1012.8
20260830182519 23 347 1.6 8.0 0.00 0.00 0.00 59 1012.7
20260830182418 23 319 1.6 8.0 0.00 0.00 0.00 59 1012.8
20260830182312 23 319 1.6 8.0 0.00 0.00 0.00 58 1012.8
20260830182213 23 319 1.6 9.7 0.00 0.00 0.00 58 1012.8
20260830182113 23 141 1.6 9.7 0.00 0.00 0.00 59 1012.8
20260830182012 23 163 1.6 9.7 0.00 0.00 0.00 59 1012.9
20260830181913 22 152 1.6 9.7 0.00 0.00 0.00 58 1012.8
20260830181826 22 221 1.6 9.7 0.00 0.00 0.00 60 1012.8
20260830181811 22 233 1.6 9.7 0.00 0.00 0.00 60 1012.9
20260830181711 22 149 1.6 9.7 0.00 0.00 0.00 60 1012.9
20260830181611 22 150 1.6 9.7 0.00 0.00 0.00 60 1012.9
20260830181509 22 77 3.2 9.7 0.00 0.00 0.00 60 1012.9
20260830181406 22 72 3.2 9.7 0.00 0.00 0.00 59 1012.9
20260830181324 22 73 3.2 9.7 0.00 0.00 0.00 59 1012.9
20260830181301 22 323 3.2 9.7 0.00 0.00 0.00 60 1012.9
20260830181200 22 222 3.2 9.7 0.00 0.00 0.00 60 1012.9
20260830181101 22 233 3.2 9.7 0.00 0.00 0.00 60 1012.9
20260830181001 22 291 3.2 9.7 0.00 0.00 0.00 60 1012.9
20260830180900 22 291 3.2 9.7 0.00 0.00 0.00 60 1012.9
20260830180824 22 291 3.2 9.7 0.00 0.00 0.00 60 1012.9
20260830180801 22 217 3.2 9.7 0.00 0.00 0.00 59 1012.9
20260830180659 22 224 3.2 9.7 0.00 0.00 0.00 60 1012.8
20260830180559 22 218 3.2 9.7 0.00 0.00 0.00 60 1012.9
20260830180457 22 137 3.2 9.7 0.00 0.00 0.00 60 1012.9
20260830180354 22 243 3.2 9.7 0.00 0.00 0.00 59 1012.9
20260830180324 22 197 3.2 9.7 0.00 0.00 0.00 59 1012.9
20260830180248 22 232 3.2 9.7 0.00 0.00 0.00 60 1012.9
20260830180149 22 160 1.6 6.4 0.00 0.00 0.00 60 1012.9
20260830180052 22 210 1.6 6.4 0.00 0.00 0.00 60 1013.0
20260830180044 22 229 3.2 6.4 0.00 0.00 0.00 59 1012.9
20260830175949 22 231 1.6 6.4 0.00 0.00 0.00 60 1012.9
20260830175935 22 229 3.2 6.4 0.00 0.00 0.00 59 1012.9
20260830175747 22 229 1.6 6.4 0.00 0.00 0.00 61 1012.9
20260830175647 22 158 1.6 6.4 0.00 0.00 0.00 61 1012.9
20260830175548 22 225 1.6 6.4 0.00 0.00 0.00 61 1013.0
20260830175445 22 221 1.6 6.4 0.00 0.00 0.00 62 1013.0
20260830175342 22 153 1.6 6.4 0.00 0.00 0.00 62 1013.0
20260830175324 22 152 1.6 6.4 0.00 0.00 0.00 62 1013.0
20260830175251 21 273 3.2 9.7 0.00 0.00 0.00 64 1013.1
20260830175238 22 207 1.6 6.4 0.00 0.00 0.00 62 1012.9
20260830175143 22 195 1.6 6.4 0.00 0.00 0.00 61 1012.9
20260830175134 22 208 1.6 6.4 0.00 0.00 0.00 62 1012.9
20260830174937 22 224 1.6 6.4 0.00 0.00 0.00 62 1013.0
20260830174918 22 316 1.6 9.7 0.00 0.00 0.00 63 1012.9
20260830174908 22 316 1.6 9.7 0.00 0.00 0.00 62 1012.9
20260830174733 21 316 1.6 9.7 0.00 0.00 0.00 62 1013.0
20260830174646 21 314 1.6 9.7 0.00 0.00 0.00 63 1013.0
20260830174533 21 321 1.6 9.7 0.00 0.00 0.00 63 1013.0
20260830174439 21 273 1.6 9.7 0.00 0.00 0.00 63 1013.1
20260830174430 21 273 3.2 9.7 0.00 0.00 0.00 64 1013.1
20260830174313 21 255 3.2 9.7 0.00 0.00 0.00 65 1013.1
20260830174227 21 214 3.2 9.7 0.00 0.00 0.00 64 1013.0
20260830174156 21 204 3.2 9.7 0.00 0.00 0.00 63 1013.0
20260830174024 21 216 3.2 9.7 0.00 0.00 0.00 63 1013.1
20260830173937 21 208 3.2 9.7 0.00 0.00 0.00 63 1013.1
20260830173927 21 255 3.2 9.7 0.00 0.00 0.00 65 1013.1
20260830173718 21 194 3.2 9.7 0.00 0.00 0.00 64 1013.1
20260830173617 21 217 3.2 9.7 0.00 0.00 0.00 64 1013.1
20260830173522 21 243 3.2 9.7 0.00 0.00 0.00 65 1013.1
20260830173416 21 224 3.2 9.7 0.00 0.00 0.00 64 1013.1
20260830173317 21 211 3.2 9.7 0.00 0.00 0.00 64 1013.1
20260830173213 21 253 3.2 9.7 0.00 0.00 0.00 63 1013.1
20260830173110 21 238 3.2 9.7 0.00 0.00 0.00 64 1013.1
20260830173011 21 321 3.2 9.7 0.00 0.00 0.00 62 1013.1
20260830172911 21 316 1.6 9.7 0.00 0.00 0.00 63 1013.1
20260830172811 21 309 1.6 9.7 0.00 0.00 0.00 63 1013.1
20260830172707 21 27 1.6 9.7 0.00 0.00 0.00 64 1013.1
20260830172605 21 263 1.6 9.7 0.00 0.00 0.00 64 1013.1
20260830172505 21 262 1.6 9.7 0.00 0.00 0.00 63 1013.0
20260830172405 21 212 1.6 8.0 0.00 0.00 0.00 63 1013.1
20260830172306 21 169 1.6 8.0 0.00 0.00 0.00 65 1013.0
20260830172202 21 163 1.6 8.0 0.00 0.00 0.00 64 1013.0
20260830172103 21 328 1.6 8.0 0.00 0.00 0.00 65 1013.0
20260830172003 21 343 1.6 9.7 0.00 0.00 0.00 66 1013.0
20260830171900 21 236 1.6 9.7 0.00 0.00 0.00 65 1013.0
20260830171759 21 210 1.6 9.7 0.00 0.00 0.00 65 1013.0
20260830171657 21 240 1.6 9.7 0.00 0.00 0.00 65 1013.0
20260830171557 21 242 1.6 9.7 0.00 0.00 0.00 65 1013.0
20260830171455 21 241 1.6 9.7 0.00 0.00 0.00 65 1013.0
20260830171355 21 242 1.6 9.7 0.00 0.00 0.00 65 1013.0
20260830171253 21 242 1.6 9.7 0.00 0.00 0.00 65 1013.0
20260830171151 21 286 1.6 9.7 0.00 0.00 0.00 65 1013.0
20260830171051 21 301 1.6 9.7 0.00 0.00 0.00 65 1013.0
20260830170950 21 243 1.6 8.0 0.00 0.00 0.00 66 1013.0
20260830170849 20 132 1.6 4.8 0.00 0.00 0.00 66 1013.0
20260830170747 20 132 1.6 4.8 0.00 0.00 0.00 66 1012.9
20260830170645 20 132 1.6 6.4 0.00 0.00 0.00 66 1013.0
20260830170544 20 134 1.6 6.4 0.00 0.00 0.00 66 1013.0
20260830170444 20 326 1.6 6.4 0.00 0.00 0.00 66 1013.0
20260830170342 20 326 1.6 8.0 0.00 0.00 0.00 67 1013.0
20260830170241 20 326 1.6 8.0 0.00 0.00 0.00 66 1013.0
20260830170139 20 326 1.6 8.0 0.00 0.00 0.00 67 1013.0
20260830170038 20 347 1.6 8.0 0.00 0.00 0.00 66 1013.0
20260830165938 20 304 1.6 8.0 0.00 0.00 0.00 66 1013.0
20260830165836 20 252 1.6 8.0 0.00 0.00 0.00 66 1013.1
20260830165735 20 225 1.6 8.0 0.00 0.00 0.00 67 1013.1
20260830165629 20 245 1.6 8.0 0.00 0.00 0.00 67 1013.1
20260830165529 20 245 1.6 8.0 0.00 0.00 0.00 66 1013.1
20260830165429 20 243 1.6 8.0 0.00 0.00 0.00 66 1013.1
20260830165329 20 208 0.0 6.4 0.00 0.00 0.00 66 1013.0
20260830165229 20 229 0.0 3.2 0.00 0.00 0.00 66 1013.1
20260830165127 20 229 0.0 3.2 0.00 0.00 0.00 67 1013.0
20260830165027 20 229 1.6 4.8 0.00 0.00 0.00 66 1013.0
20260830164939 20 229 0.0 4.8 0.00 0.00 0.00 66 1013.0
20260830164927 20 229 1.6 4.8 0.00 0.00 0.00 66 1013.0
20260830164837 20 229 1.6 4.8 0.00 0.00 0.00 66 1013.0
20260830164827 20 229 0.0 4.8 0.00 0.00 0.00 66 1013.0
20260830164619 20 229 0.0 4.8 0.00 0.00 0.00 66 1013.0
20260830164521 20 229 0.0 4.8 0.00 0.00 0.00 66 1013.0
20260830164417 20 229 0.0 4.8 0.00 0.00 0.00 66 1013.0
20260830164318 20 230 0.0 4.8 0.00 0.00 0.00 66 1013.0
20260830164217 20 229 0.0 4.8 0.00 0.00 0.00 67 1013.0
20260830164110 20 231 0.0 4.8 0.00 0.00 0.00 67 1013.0
20260830164011 20 250 0.0 3.2 0.00 0.00 0.00 68 1013.0
20260830163911 20 165 0.0 3.2 0.00 0.00 0.00 68 1013.0
20260830163811 20 215 1.6 4.8 0.00 0.00 0.00 68 1013.0
20260830163711 20 215 1.6 4.8 0.00 0.00 0.00 69 1013.0
20260830163608 20 216 1.6 4.8 0.00 0.00 0.00 69 1013.0
20260830163510 20 215 1.6 4.8 0.00 0.00 0.00 69 1013.0
20260830163409 20 187 1.6 4.8 0.00 0.00 0.00 69 1013.0
20260830163307 19 311 1.6 4.8 0.00 0.00 0.00 68 1012.9
20260830163205 19 311 1.6 4.8 0.00 0.00 0.00 68 1012.9
20260830163103 19 241 1.6 4.8 0.00 0.00 0.00 69 1012.9
20260830163003 19 228 1.6 4.8 0.00 0.00 0.00 69 1012.9
20260830162924 20 229 1.6 4.8 0.00 0.00 0.00 69 1012.9
20260830162901 19 229 1.6 4.8 0.00 0.00 0.00 68 1012.9
20260830162814 20 228 0.0 4.8 0.00 0.00 0.00 68 1012.9
20260830162804 20 229 1.6 4.8 0.00 0.00 0.00 69 1012.9
20260830162555 19 224 1.6 4.8 0.00 0.00 0.00 69 1013.0
20260830162454 19 224 1.6 4.8 0.00 0.00 0.00 69 1012.9
20260830162353 19 224 1.6 4.8 0.00 0.00 0.00 69 1012.9
20260830162252 19 224 1.6 4.8 0.00 0.00 0.00 69 1012.9
20260830162153 19 218 1.6 4.8 0.00 0.00 0.00 69 1013.0
20260830162046 19 230 1.6 4.8 0.00 0.00 0.00 70 1012.9
20260830161947 19 230 1.6 4.8 0.00 0.00 0.00 70 1013.0
20260830161847 19 237 1.6 4.8 0.00 0.00 0.00 70 1013.0
20260830161746 19 232 1.6 4.8 0.00 0.00 0.00 70 1013.0
20260830161647 19 233 1.6 4.8 0.00 0.00 0.00 70 1012.9
20260830161543 18 208 1.6 6.4 0.00 0.00 0.00 70 1012.9
20260830161443 18 222 1.6 8.0 0.00 0.00 0.00 70 1013.0
20260830161343 18 235 1.6 8.0 0.00 0.00 0.00 70 1012.9
20260830161242 18 225 1.6 8.0 0.00 0.00 0.00 70 1012.9
20260830161142 18 195 1.6 8.0 0.00 0.00 0.00 71 1013.0
20260830161036 18 191 1.6 8.0 0.00 0.00 0.00 70 1013.0
20260830160937 18 150 1.6 8.0 0.00 0.00 0.00 70 1013.0
20260830160837 18 221 1.6 8.0 0.00 0.00 0.00 71 1013.0
20260830160737 18 203 1.6 8.0 0.00 0.00 0.00 71 1013.0
20260830160636 18 203 1.6 8.0 0.00 0.00 0.00 70 1013.0
20260830160528 18 226 1.6 8.0 0.00 0.00 0.00 71 1013.0
20260830160429 18 250 1.6 8.0 0.00 0.00 0.00 71 1013.0
20260830160329 18 257 1.6 6.4 0.00 0.00 0.00 72 1013.0
20260830160229 18 218 1.6 6.4 0.00 0.00 0.00 72 1012.9
20260830160130 18 219 1.6 11.3 0.00 0.00 0.00 72 1012.9
20260830160028 18 218 1.6 11.3 0.00 0.00 0.00 72 1012.9
20260830155927 18 217 1.6 11.3 0.00 0.00 0.00 73 1012.9
20260830155827 18 207 3.2 11.3 0.00 0.00 0.00 73 1012.9
20260830155724 18 207 3.2 11.3 0.00 0.00 0.00 73 1013.0
20260830155623 18 203 3.2 11.3 0.00 0.00 0.00 73 1012.9
20260830155517 17 250 3.2 12.9 0.00 0.00 0.00 73 1012.9
20260830155417 17 207 3.2 12.9 0.00 0.00 0.00 73 1012.9
20260830155317 17 239 3.2 12.9 0.00 0.00 0.00 73 1012.9
20260830155217 17 241 3.2 12.9 0.00 0.00 0.00 74 1012.9
20260830155117 17 221 3.2 12.9 0.00 0.00 0.00 74 1013.0
20260830155010 17 228 3.2 12.9 0.00 0.00 0.00 73 1012.9
20260830154911 17 266 4.8 12.9 0.00 0.00 0.00 74 1012.9
20260830154811 17 222 4.8 12.9 0.00 0.00 0.00 74 1012.9
20260830154710 17 212 4.8 12.9 0.00 0.00 0.00 73 1012.9
20260830154611 17 214 3.2 12.9 0.00 0.00 0.00 74 1012.9
20260830154505 17 229 3.2 11.3 0.00 0.00 0.00 74 1012.9
20260830154405 17 242 3.2 11.3 0.00 0.00 0.00 74 1013.0
20260830154305 17 235 4.8 11.3 0.00 0.00 0.00 74 1013.0
20260830154204 17 235 4.8 11.3 0.00 0.00 0.00 74 1012.9
20260830154105 17 231 4.8 11.3 0.00 0.00 0.00 74 1012.9
20260830154001 17 256 3.2 11.3 0.00 0.00 0.00 74 1012.9
20260830153900 17 236 3.2 11.3 0.00 0.00 0.00 74 1012.9
20260830153801 17 217 3.2 9.7 0.00 0.00 0.00 74 1013.0
20260830153701 17 226 3.2 9.7 0.00 0.00 0.00 75 1013.0
20260830153600 17 288 3.2 9.7 0.00 0.00 0.00 75 1013.0
20260830153456 17 212 3.2 9.7 0.00 0.00 0.00 75 1013.0
20260830153356 17 229 3.2 9.7 0.00 0.00 0.00 75 1013.0
20260830153256 17 241 3.2 9.7 0.00 0.00 0.00 75 1013.0
20260830153156 17 174 3.2 9.7 0.00 0.00 0.00 75 1013.0
20260830153059 17 242 1.6 9.7 0.00 0.00 0.00 75 1013.0
20260830153051 17 235 1.6 9.7 0.00 0.00 0.00 75 1013.0
20260830152956 17 210 1.6 9.7 0.00 0.00 0.00 76 1013.0
20260830152856 17 148 3.2 9.7 0.00 0.00 0.00 76 1013.0
20260830152754 17 148 3.2 11.3 0.00 0.00 0.00 76 1013.0
20260830152654 17 194 3.2 11.3 0.00 0.00 0.00 76 1013.1
20260830152553 17 214 3.2 11.3 0.00 0.00 0.00 76 1013.0
20260830152546 17 256 3.2 11.3 0.00 0.00 0.00 76 1013.0
20260830152451 17 233 3.2 11.3 0.00 0.00 0.00 76 1013.1
20260830152352 17 235 3.2 11.3 0.00 0.00 0.00 76 1013.1
20260830152312 16 239 3.2 11.3 0.00 0.00 0.00 76 1013.1
20260830152251 17 239 1.6 11.3 0.00 0.00 0.00 76 1013.1
20260830152209 17 228 3.2 11.3 0.00 0.00 0.00 77 1013.0
20260830152201 16 239 3.2 11.3 0.00 0.00 0.00 76 1013.1
20260830152013 16 239 1.6 8.0 0.00 0.00 0.00 77 1013.0
20260830151951 16 236 3.2 11.3 0.00 0.00 0.00 76 1013.0
20260830151903 17 226 1.6 11.3 0.00 0.00 0.00 76 1013.0
20260830151748 16 243 1.6 8.0 0.00 0.00 0.00 76 1013.1
20260830151649 16 217 1.6 8.0 0.00 0.00 0.00 76 1013.0
20260830151641 16 235 1.6 8.0 0.00 0.00 0.00 77 1013.0
20260830151449 16 229 1.6 6.4 0.00 0.00 0.00 77 1013.0
20260830151347 16 225 1.6 6.4 0.00 0.00 0.00 77 1013.0
20260830151244 16 207 1.6 6.4 0.00 0.00 0.00 77 1013.0
20260830151142 16 226 1.6 6.4 0.00 0.00 0.00 78 1013.0
20260830151041 16 226 1.6 6.4 0.00 0.00 0.00 77 1013.0
20260830151027 16 228 1.6 6.4 0.00 0.00 0.00 78 1013.0
20260830150942 16 212 1.6 6.4 0.00 0.00 0.00 78 1013.0
20260830150841 16 201 1.6 6.4 0.00 0.00 0.00 79 1013.0
20260830150742 16 201 1.6 6.4 0.00 0.00 0.00 79 1013.0
20260830150640 16 201 3.2 12.9 0.00 0.00 0.00 79 1013.0
20260830150541 16 201 3.2 12.9 0.00 0.00 0.00 79 1012.9
20260830150520 16 201 3.2 12.9 0.00 0.00 0.00 79 1013.0
20260830150438 16 212 3.2 12.9 0.00 0.00 0.00 79 1013.0
20260830150335 16 218 3.2 12.9 0.00 0.00 0.00 79 1012.9
20260830150230 16 232 4.8 12.9 0.00 0.00 0.00 79 1012.9
20260830150131 16 231 4.8 12.9 0.00 0.00 0.00 80 1012.9
20260830150030 16 129 4.8 12.9 0.00 0.00 0.00 80 1012.9
20260830150014 16 127 4.8 12.9 0.00 0.00 0.00 80 1012.9
20260830145930 16 231 4.8 12.9 0.00 0.00 0.00 80 1012.9
20260830145829 15 238 4.8 12.9 0.00 0.00 0.00 79 1012.9
20260830145730 15 236 4.8 12.9 0.00 0.00 0.00 80 1012.9
20260830145628 15 229 4.8 11.3 0.00 0.00 0.00 80 1012.9
20260830145528 15 221 4.8 11.3 0.00 0.00 0.00 80 1012.8
20260830145508 15 248 4.8 11.3 0.00 0.00 0.00 80 1012.9
20260830145428 15 210 4.8 11.3 0.00 0.00 0.00 80 1012.9
20260830145328 15 245 4.8 11.3 0.00 0.00 0.00 80 1012.8
20260830145212 15 233 3.2 9.7 0.00 0.00 0.00 80 1012.8
20260830145112 15 226 3.2 9.7 0.00 0.00 0.00 80 1012.8
20260830145018 15 271 3.2 9.7 0.00 0.00 0.00 80 1012.8
20260830145011 15 273 3.2 9.7 0.00 0.00 0.00 80 1012.8
20260830144912 15 273 4.8 11.3 0.00 0.00 0.00 80 1012.8
20260830144811 15 228 4.8 11.3 0.00 0.00 0.00 80 1012.8
20260830144708 15 233 4.8 11.3 0.00 0.00 0.00 80 1012.8
20260830144609 15 226 4.8 11.3 0.00 0.00 0.00 80 1012.8
20260830144509 15 233 4.8 11.3 0.00 0.00 0.00 80 1012.8
20260830144408 15 238 4.8 11.3 0.00 0.00 0.00 80 1012.8
20260830144305 15 236 4.8 11.3 0.00 0.00 0.00 80 1012.8
20260830144200 15 232 4.8 11.3 0.00 0.00 0.00 80 1012.9
20260830144101 15 256 4.8 11.3 0.00 0.00 0.00 79 1012.8
20260830144008 15 229 4.8 11.3 0.00 0.00 0.00 80 1012.8
20260830144001 15 233 4.8 11.3 0.00 0.00 0.00 80 1012.8
20260830143900 15 162 3.2 11.3 0.00 0.00 0.00 79 1012.8
20260830143800 15 216 3.2 8.0 0.00 0.00 0.00 80 1012.8
20260830143655 15 226 3.2 8.0 0.00 0.00 0.00 80 1012.8
20260830143555 15 186 3.2 8.0 0.00 0.00 0.00 80 1012.9
20260830143508 15 171 3.2 8.0 0.00 0.00 0.00 80 1012.9
20260830143455 15 246 3.2 8.0 0.00 0.00 0.00 80 1012.9
20260830143355 15 191 3.2 8.0 0.00 0.00 0.00 80 1012.9
20260830143252 15 212 3.2 8.0 0.00 0.00 0.00 80 1012.8
20260830143153 15 242 3.2 11.3 0.00 0.00 0.00 79 1012.8
20260830143051 15 236 4.8 11.3 0.00 0.00 0.00 79 1012.8
20260830143008 15 228 3.2 11.3 0.00 0.00 0.00 79 1012.8
20260830142954 15 228 3.2 11.3 0.00 0.00 0.00 79 1012.8
20260830142850 15 203 3.2 11.3 0.00 0.00 0.00 79 1012.8
20260830142751 15 138 3.2 11.3 0.00 0.00 0.00 79 1012.8
20260830142652 15 211 3.2 11.3 0.00 0.00 0.00 79 1012.8
20260830142550 15 225 3.2 11.3 0.00 0.00 0.00 79 1012.7
20260830142508 15 226 3.2 11.3 0.00 0.00 0.00 79 1012.7
20260830142449 15 250 3.2 11.3 0.00 0.00 0.00 79 1012.7
20260830142349 15 245 4.8 11.3 0.00 0.00 0.00 79 1012.7
20260830142247 15 203 4.8 11.3 0.00 0.00 0.00 79 1012.6
20260830142147 15 243 3.2 11.3 0.00 0.00 0.00 79 1012.7
20260830142045 15 252 3.2 9.7 0.00 0.00 0.00 79 1012.5
20260830142008 15 235 3.2 9.7 0.00 0.00 0.00 79 1012.6
20260830141945 15 235 3.2 9.7 0.00 0.00 0.00 78 1012.6
20260830141844 15 231 4.8 9.7 0.00 0.00 0.00 78 1012.5
20260830141743 15 230 4.8 9.7 0.00 0.00 0.00 78 1012.5
20260830141643 15 226 4.8 9.7 0.00 0.00 0.00 78 1012.5
20260830141540 15 214 4.8 14.5 0.00 0.00 0.00 78 1012.5
20260830141508 15 132 4.8 14.5 0.00 0.00 0.00 78 1012.5
20260830141441 15 248 4.8 14.5 0.00 0.00 0.00 78 1012.5
20260830141340 15 248 4.8 14.5 0.00 0.00 0.00 78 1012.5
20260830141241 15 243 4.8 14.5 0.00 0.00 0.00 78 1012.4
20260830141141 15 219 4.8 14.5 0.00 0.00 0.00 78 1012.4
20260830141040 15 211 6.4 14.5 0.00 0.00 0.00 78 1012.4
20260830141008 15 226 6.4 14.5 0.00 0.00 0.00 78 1012.4
20260830140937 15 255 6.4 14.5 0.00 0.00 0.00 78 1012.4
20260830140837 15 256 6.4 14.5 0.00 0.00 0.00 78 1012.4
20260830140735 15 238 6.4 14.5 0.00 0.00 0.00 77 1012.4
20260830140635 15 145 6.4 19.3 0.00 0.00 0.00 77 1012.3
20260830140536 15 240 6.4 19.3 0.00 0.00 0.00 77 1012.3
20260830140507 15 229 6.4 19.3 0.00 0.00 0.00 77 1012.4
20260830140435 15 229 6.4 19.3 0.00 0.00 0.00 77 1012.4
20260830140335 15 229 6.4 19.3 0.00 0.00 0.00 77 1012.4
20260830140234 15 245 6.4 19.3 0.00 0.00 0.00 77 1012.4
20260830140133 15 221 6.4 19.3 0.00 0.00 0.00 77 1012.3
20260830140033 15 208 6.4 19.3 0.00 0.00 0.00 77 1012.4
20260830140008 15 235 6.4 19.3 0.00 0.00 0.00 77 1012.4
20260830135933 15 232 6.4 19.3 0.00 0.00 0.00 77 1012.4
20260830135833 15 233 4.8 19.3 0.00 0.00 0.00 76 1012.3
20260830135735 15 260 3.2 11.3 0.00 0.00 0.00 76 1012.3
20260830135731 15 131 4.8 19.3 0.00 0.00 0.00 76 1012.3
20260830135631 15 212 4.8 11.3 0.00 0.00 0.00 76 1012.3
20260830135619 15 240 4.8 11.3 0.00 0.00 0.00 76 1012.3
20260830135430 15 248 3.2 11.3 0.00 0.00 0.00 76 1012.3
20260830135328 15 238 3.2 9.7 0.00 0.00 0.00 76 1012.3
20260830135229 15 244 3.2 9.7 0.00 0.00 0.00 76 1012.2
20260830135128 15 221 3.2 9.7 0.00 0.00 0.00 76 1012.3
20260830135029 15 257 3.2 9.7 0.00 0.00 0.00 75 1012.3
20260830135007 15 239 3.2 9.7 0.00 0.00 0.00 75 1012.2
20260830134929 15 233 3.2 9.7 0.00 0.00 0.00 75 1012.2
20260830134827 15 260 3.2 9.7 0.00 0.00 0.00 75 1012.3
20260830134722 15 229 3.2 9.7 0.00 0.00 0.00 75 1012.3
20260830134623 15 238 4.8 11.3 0.00 0.00 0.00 75 1012.2
20260830134522 15 210 4.8 12.9 0.00 0.00 0.00 75 1012.2
20260830134505 15 233 4.8 12.9 0.00 0.00 0.00 75 1012.2
20260830134423 15 245 4.8 12.9 0.00 0.00 0.00 75 1012.2
20260830134322 15 235 4.8 12.9 0.00 0.00 0.00 75 1012.2
20260830134217 15 232 4.8 12.9 0.00 0.00 0.00 75 1012.2
20260830134116 15 212 4.8 12.9 0.00 0.00 0.00 75 1012.2
20260830134017 15 239 4.8 12.9 0.00 0.00 0.00 75 1012.1
20260830133955 15 239 4.8 12.9 0.00 0.00 0.00 75 1012.1
20260830133916 15 233 4.8 12.9 0.00 0.00 0.00 75 1012.1
20260830133816 15 231 4.8 12.9 0.00 0.00 0.00 75 1012.1
20260830133713 15 225 4.8 12.9 0.00 0.00 0.00 75 1012.1
20260830133611 15 238 4.8 12.9 0.00 0.00 0.00 75 1012.1
20260830133511 15 248 4.8 12.9 0.00 0.00 0.00 75 1012.1
20260830133451 15 233 4.8 12.9 0.00 0.00 0.00 75 1012.1
20260830133411 15 224 4.8 12.9 0.00 0.00 0.00 75 1012.1
20260830133309 15 205 4.8 12.9 0.00 0.00 0.00 75 1012.0
20260830133204 15 231 4.8 12.9 0.00 0.00 0.00 75 1012.0
20260830133105 15 239 4.8 11.3 0.00 0.00 0.00 75 1012.0
20260830133005 15 248 4.8 11.3 0.00 0.00 0.00 74 1012.0
20260830132943 15 211 4.8 11.3 0.00 0.00 0.00 74 1012.0
20260830132904 15 217 3.2 11.3 0.00 0.00 0.00 75 1012.0
20260830132804 15 203 4.8 11.3 0.00 0.00 0.00 74 1012.0
20260830132701 15 235 4.8 11.3 0.00 0.00 0.00 74 1011.9
20260830132626 15 246 1.6 8.0 0.00 0.00 0.00 74 1011.9
20260830132601 15 226 3.2 11.3 0.00 0.00 0.00 74 1011.9
20260830132529 15 248 3.2 11.3 0.00 0.00 0.00 75 1011.9
20260830132516 15 255 3.2 11.3 0.00 0.00 0.00 75 1011.9
20260830132401 15 231 3.2 11.3 0.00 0.00 0.00 74 1011.9
20260830132307 15 225 1.6 11.3 0.00 0.00 0.00 75 1011.9
20260830132259 15 222 1.6 9.7 0.00 0.00 0.00 75 1011.9
20260830132056 15 231 1.6 8.0 0.00 0.00 0.00 74 1011.9
20260830132041 15 245 1.6 8.0 0.00 0.00 0.00 74 1011.9
20260830131853 15 245 1.6 8.0 0.00 0.00 0.00 74 1011.9
20260830131752 15 242 1.6 8.0 0.00 0.00 0.00 74 1011.9
20260830131653 15 221 1.6 8.0 0.00 0.00 0.00 74 1011.8
20260830131551 15 246 3.2 8.0 0.00 0.00 0.00 74 1011.9
20260830131425 15 228 3.2 8.0 0.00 0.00 0.00 74 1011.8
20260830131349 15 228 3.2 8.0 0.00 0.00 0.00 74 1011.8
20260830131246 15 228 3.2 8.0 0.00 0.00 0.00 74 1011.8
20260830131145 15 228 3.2 8.0 0.00 0.00 0.00 74 1011.8
20260830131136 15 235 3.2 8.0 0.00 0.00 0.00 74 1011.8
20260830131043 15 229 3.2 8.0 0.00 0.00 0.00 74 1011.8
20260830131029 15 204 3.2 8.0 0.00 0.00 0.00 74 1011.8
20260830130841 15 240 3.2 8.0 0.00 0.00 0.00 74 1011.8
20260830130740 15 218 3.2 8.0 0.00 0.00 0.00 74 1011.8
20260830130636 15 221 1.6 8.0 0.00 0.00 0.00 74 1011.8
20260830130535 15 226 1.6 8.0 0.00 0.00 0.00 74 1011.8
20260830130435 15 215 1.6 6.4 0.00 0.00 0.00 74 1011.8
20260830130414 15 228 1.6 6.4 0.00 0.00 0.00 74 1011.8
20260830130334 15 215 1.6 6.4 0.00 0.00 0.00 74 1011.8
20260830130234 15 240 1.6 6.4 0.00 0.00 0.00 74 1011.9
20260830130135 15 240 1.6 6.4 0.00 0.00 0.00 74 1011.9
20260830130032 15 148 1.6 6.4 0.00 0.00 0.00 74 1011.9
20260830125933 15 241 1.6 6.4 0.00 0.00 0.00 74 1011.9
20260830125907 15 242 1.6 6.4 0.00 0.00 0.00 74 1011.9
20260830125831 15 241 1.6 6.4 0.00 0.00 0.00 74 1011.9
20260830125727 15 219 1.6 6.4 0.00 0.00 0.00 74 1011.9
20260830125625 15 308 1.6 6.4 0.00 0.00 0.00 74 1011.8
20260830125523 15 307 1.6 6.4 0.00 0.00 0.00 74 1011.8
20260830125423 15 237 1.6 6.4 0.00 0.00 0.00 74 1011.8
20260830125401 15 236 1.6 6.4 0.00 0.00 0.00 74 1011.7
20260830125323 15 236 1.6 6.4 0.00 0.00 0.00 74 1011.7
20260830125222 15 224 1.6 6.4 0.00 0.00 0.00 74 1011.8
20260830125117 15 230 1.6 6.4 0.00 0.00 0.00 74 1011.8
20260830125017 15 255 1.6 6.4 0.00 0.00 0.00 74 1011.8
20260830124917 15 214 1.6 6.4 0.00 0.00 0.00 74 1011.7
20260830124856 15 214 1.6 6.4 0.00 0.00 0.00 74 1011.7
20260830124817 15 214 1.6 6.4 0.00 0.00 0.00 74 1011.7
20260830124716 15 232 0.0 6.4 0.00 0.00 0.00 74 1011.7
20260830124613 15 225 0.0 6.4 0.00 0.00 0.00 74 1011.7
20260830124511 15 238 0.0 3.2 0.00 0.00 0.00 74 1011.7
20260830124411 15 235 0.0 1.6 0.00 0.00 0.00 74 1011.7
20260830124349 15 235 0.0 1.6 0.00 0.00 0.00 74 1011.7
20260830124311 15 235 0.0 3.2 0.00 0.00 0.00 74 1011.7
20260830124211 15 235 0.0 3.2 0.00 0.00 0.00 74 1011.7
20260830124111 15 234 0.0 3.2 0.00 0.00 0.00 74 1011.7
20260830124009 15 235 0.0 3.2 0.00 0.00 0.00 74 1011.7
20260830123906 15 235 0.0 3.2 0.00 0.00 0.00 74 1011.6
20260830123843 15 235 0.0 3.2 0.00 0.00 0.00 74 1011.6
20260830123807 15 235 1.6 3.2 0.00 0.00 0.00 74 1011.6
20260830123704 15 235 1.6 8.0 0.00 0.00 0.00 74 1011.6
20260830123601 15 235 1.6 8.0 0.00 0.00 0.00 74 1011.6
20260830123502 15 235 1.6 8.0 0.00 0.00 0.00 74 1011.6
20260830123338 15 235 1.6 8.0 0.00 0.00 0.00 74 1011.6
20260830123259 15 235 1.6 8.0 0.00 0.00 0.00 74 1011.6
20260830123158 15 235 1.6 8.0 0.00 0.00 0.00 74 1011.6
20260830123055 15 235 1.6 8.0 0.00 0.00 0.00 74 1011.6
20260830122954 15 235 1.6 8.0 0.00 0.00 0.00 74 1011.6
20260830122831 15 235 1.6 8.0 0.00 0.00 0.00 74 1011.6
20260830122753 15 242 1.6 8.0 0.00 0.00 0.00 75 1011.6
20260830122654 15 224 1.6 8.0 0.00 0.00 0.00 75 1011.6
20260830122549 15 239 1.6 4.8 0.00 0.00 0.00 75 1011.6
20260830122449 15 201 1.6 6.4 0.00 0.00 0.00 75 1011.6
20260830122348 15 230 1.6 6.4 0.00 0.00 0.00 76 1011.6
20260830122325 15 236 1.6 6.4 0.00 0.00 0.00 76 1011.6
20260830122249 15 236 1.6 6.4 0.00 0.00 0.00 76 1011.6
20260830122146 15 238 1.6 6.4 0.00 0.00 0.00 76 1011.6
20260830122041 15 218 0.0 6.4 0.00 0.00 0.00 76 1011.7
20260830121941 15 218 0.0 6.4 0.00 0.00 0.00 76 1011.7
20260830121840 15 238 0.0 6.4 0.00 0.00 0.00 77 1011.6
20260830121819 15 236 0.0 6.4 0.00 0.00 0.00 77 1011.6
20260830121741 15 236 0.0 6.4 0.00 0.00 0.00 77 1011.6
20260830121640 15 238 0.0 6.4 0.00 0.00 0.00 77 1011.6
20260830121537 14 235 0.0 4.8 0.00 0.00 0.00 78 1011.6
20260830121437 14 224 0.0 0.0 0.00 0.00 0.00 78 1011.6
20260830121337 14 223 0.0 0.0 0.00 0.00 0.00 78 1011.6
20260830121313 14 224 0.0 0.0 0.00 0.00 0.00 78 1011.6
20260830121237 14 224 0.0 0.0 0.00 0.00 0.00 78 1011.6
20260830121134 14 224 0.0 0.0 0.00 0.00 0.00 77 1011.6
20260830121035 14 224 0.0 0.0 0.00 0.00 0.00 77 1011.6
20260830120933 14 224 0.0 0.0 0.00 0.00 0.00 77 1011.6
20260830120833 15 224 0.0 0.0 0.00 0.00 0.00 76 1011.7
20260830120808 15 224 0.0 0.0 0.00 0.00 0.00 76 1011.6
20260830120731 15 223 0.0 0.0 0.00 0.00 0.00 76 1011.6
20260830120628 15 224 0.0 0.0 0.00 0.00 0.00 76 1011.7
20260830120529 15 224 0.0 0.0 0.00 0.00 0.00 76 1011.7
20260830120427 15 224 0.0 0.0 0.00 0.00 0.00 77 1011.7
20260830120327 15 223 0.0 0.0 0.00 0.00 0.00 76 1011.7
20260830120314 15 224 0.0 0.0 0.00 0.00 0.00 76 1011.7
20260830120225 15 224 0.0 0.0 0.00 0.00 0.00 76 1011.7
20260830120122 15 224 0.0 0.0 0.00 0.00 0.00 76 1011.7
20260830120017 15 224 0.0 0.0 0.00 0.00 0.00 76 1011.7
20260830115917 15 224 0.0 0.0 0.00 0.00 0.00 76 1011.7
20260830115817 15 224 0.0 0.0 0.00 0.00 0.00 76 1011.7
20260830115756 15 224 0.0 0.0 0.00 0.00 0.00 76 1011.7
20260830115717 15 224 0.0 0.0 0.00 0.00 0.00 76 1011.7
20260830115616 15 224 0.0 0.0 0.00 0.00 0.00 76 1011.6
20260830115514 15 224 0.0 0.0 0.00 0.00 0.00 76 1011.6
20260830115413 15 224 0.0 0.0 0.00 0.00 0.00 76 1011.6
20260830115313 15 224 0.0 0.0 0.00 0.00 0.00 76 1011.6
20260830115249 15 224 0.0 0.0 0.00 0.00 0.00 76 1011.6
20260830115213 15 224 0.0 0.0 0.00 0.00 0.00 76 1011.6
20260830115110 15 224 0.0 0.0 0.00 0.00 0.00 76 1011.5
20260830115009 15 224 0.0 0.0 0.00 0.00 0.00 76 1011.5
20260830114909 15 224 0.0 0.0 0.00 0.00 0.00 76 1011.5
20260830114807 15 224 0.0 0.0 0.00 0.00 0.00 76 1011.5
20260830114743 15 224 0.0 0.0 0.00 0.00 0.00 76 1011.5
20260830114707 15 224 0.0 0.0 0.00 0.00 0.00 76 1011.6
20260830114604 15 224 0.0 0.0 0.00 0.00 0.00 76 1011.5
20260830114501 15 224 0.0 0.0 0.00 0.00 0.00 76 1011.5
20260830114358 15 224 0.0 0.0 0.00 0.00 0.00 76 1011.5
20260830114237 15 224 0.0 0.0 0.00 0.00 0.00 76 1011.6
20260830114159 15 223 0.0 0.0 0.00 0.00 0.00 76 1011.5
20260830114059 15 224 0.0 0.0 0.00 0.00 0.00 76 1011.5
20260830113959 15 224 0.0 0.0 0.00 0.00 0.00 76 1011.5
20260830113857 15 224 0.0 0.0 0.00 0.00 0.00 76 1011.5
20260830113738 15 224 0.0 0.0 0.00 0.00 0.00 75 1011.5
20260830113655 15 224 0.0 0.0 0.00 0.00 0.00 75 1011.4
20260830113552 15 224 0.0 0.0 0.00 0.00 0.00 75 1011.5
20260830113448 15 224 0.0 0.0 0.00 0.00 0.00 74 1011.5
20260830113348 15 224 0.0 0.0 0.00 0.00 0.00 74 1011.5
20260830113238 15 224 0.0 0.0 0.00 0.00 0.00 74 1011.5
20260830113147 15 223 0.0 0.0 0.00 0.00 0.00 74 1011.5
20260830113045 15 224 0.0 0.0 0.00 0.00 0.00 74 1011.5
20260830112945 15 224 0.0 0.0 0.00 0.00 0.00 74 1011.5
20260830112845 15 224 0.0 0.0 0.00 0.00 0.00 74 1011.6
20260830112737 15 224 0.0 0.0 0.00 0.00 0.00 74 1011.5
20260830112643 15 224 0.0 0.0 0.00 0.00 0.00 73 1011.6
20260830112540 15 224 0.0 0.0 0.00 0.00 0.00 73 1011.5
20260830112441 15 224 0.0 0.0 0.00 0.00 0.00 73 1011.5
20260830112338 15 224 0.0 0.0 0.00 0.00 0.00 72 1011.5
20260830112238 15 224 0.0 0.0 0.00 0.00 0.00 72 1011.5
20260830112137 15 224 0.0 0.0 0.00 0.00 0.00 72 1011.5
20260830112034 16 224 0.0 0.0 0.00 0.00 0.00 72 1011.5
20260830111930 16 224 0.0 1.6 0.00 0.00 0.00 72 1011.5
20260830111831 16 224 0.0 1.6 0.00 0.00 0.00 72 1011.5
20260830111731 16 224 0.0 1.6 0.00 0.00 0.00 72 1011.5
20260830111631 16 224 0.0 1.6 0.00 0.00 0.00 71 1011.5
20260830111528 16 224 0.0 4.8 0.00 0.00 0.00 71 1011.5
20260830111425 16 224 0.0 4.8 0.00 0.00 0.00 70 1011.5
20260830111322 16 224 0.0 4.8 0.00 0.00 0.00 70 1011.5
20260830111236 16 224 0.0 4.8 0.00 0.00 0.00 71 1011.5
20260830111222 16 223 0.0 4.8 0.00 0.00 0.00 71 1011.5
20260830111123 16 224 1.6 4.8 0.00 0.00 0.00 71 1011.5
20260830111022 16 224 1.6 6.4 0.00 0.00 0.00 70 1011.5
20260830110918 16 224 1.6 6.4 0.00 0.00 0.00 70 1011.5
20260830110817 16 224 1.6 6.4 0.00 0.00 0.00 70 1011.5
20260830110747 16 224 1.6 6.4 0.00 0.00 0.00 70 1011.5
20260830110717 16 224 1.6 6.4 0.00 0.00 0.00 70 1011.5
20260830110617 16 201 1.6 6.4 0.00 0.00 0.00 70 1011.5
20260830110516 16 240 1.6 6.4 0.00 0.00 0.00 70 1011.5
20260830110413 16 240 1.6 6.4 0.00 0.00 0.00 70 1011.4
20260830110310 16 240 1.6 6.4 0.00 0.00 0.00 70 1011.4
20260830110211 16 240 1.6 6.4 0.00 0.00 0.00 70 1011.4
20260830110110 16 232 1.6 6.4 0.00 0.00 0.00 70 1011.4
20260830110010 16 236 1.6 4.8 0.00 0.00 0.00 70 1011.4
20260830105909 16 236 1.6 4.8 0.00 0.00 0.00 70 1011.4
20260830105809 16 222 1.6 4.8 0.00 0.00 0.00 70 1011.4
20260830105729 16 222 1.6 4.8 0.00 0.00 0.00 70 1011.4
20260830105709 16 222 1.6 4.8 0.00 0.00 0.00 70 1011.3
20260830105606 16 236 1.6 4.8 0.00 0.00 0.00 70 1011.4
20260830105504 16 231 1.6 4.8 0.00 0.00 0.00 70 1011.4
20260830105401 16 233 1.6 4.8 0.00 0.00 0.00 70 1011.4
20260830105300 16 221 1.6 4.8 0.00 0.00 0.00 70 1011.4
20260830105230 16 221 1.6 4.8 0.00 0.00 0.00 70 1011.4
20260830105201 16 233 1.6 4.8 0.00 0.00 0.00 70 1011.3
20260830105059 16 233 1.6 4.8 0.00 0.00 0.00 70 1011.3
20260830104955 16 231 1.6 4.8 0.00 0.00 0.00 70 1011.3
20260830104853 16 190 1.6 4.8 0.00 0.00 0.00 70 1011.3
20260830104751 16 214 1.6 4.8 0.00 0.00 0.00 70 1011.3
20260830104728 16 232 1.6 4.8 0.00 0.00 0.00 70 1011.3
20260830104650 16 232 1.6 4.8 0.00 0.00 0.00 70 1011.4
20260830104551 16 219 1.6 4.8 0.00 0.00 0.00 70 1011.3
20260830104451 16 195 1.6 4.8 0.00 0.00 0.00 70 1011.4
20260830104348 16 140 1.6 4.8 0.00 0.00 0.00 69 1011.3
20260830104249 16 139 1.6 4.8 0.00 0.00 0.00 69 1011.3
20260830104226 16 140 1.6 4.8 0.00 0.00 0.00 69 1011.3
20260830104147 16 140 1.6 4.8 0.00 0.00 0.00 69 1011.3
20260830104047 16 214 1.6 4.8 0.00 0.00 0.00 69 1011.3
20260830103945 16 214 1.6 4.8 0.00 0.00 0.00 69 1011.4
20260830103841 16 214 1.6 4.8 0.00 0.00 0.00 69 1011.4
20260830103739 16 221 1.6 4.8 0.00 0.00 0.00 69 1011.4
20260830103723 16 215 1.6 4.8 0.00 0.00 0.00 69 1011.4
20260830103638 16 215 1.6 4.8 0.00 0.00 0.00 69 1011.4
20260830103539 16 233 1.6 4.8 0.00 0.00 0.00 69 1011.4
20260830103437 16 233 1.6 4.8 0.00 0.00 0.00 68 1011.4
20260830103339 16 233 1.6 4.8 0.00 0.00 0.00 68 1011.4
20260830103236 16 233 1.6 4.8 0.00 0.00 0.00 68 1011.4
20260830103224 16 223 1.6 4.8 0.00 0.00 0.00 68 1011.4
20260830103137 16 212 1.6 4.8 0.00 0.00 0.00 68 1011.4
20260830103033 17 199 1.6 4.8 0.00 0.00 0.00 68 1011.4
20260830102932 17 214 1.6 4.8 0.00 0.00 0.00 68 1011.4
20260830102831 17 231 3.2 4.8 0.00 0.00 0.00 68 1011.4
20260830102734 17 230 3.2 4.8 0.00 0.00 0.00 68 1011.4
20260830102724 17 231 3.2 4.8 0.00 0.00 0.00 68 1011.4
20260830102631 17 220 3.2 4.8 0.00 0.00 0.00 68 1011.4
20260830102529 17 211 3.2 4.8 0.00 0.00 0.00 68 1011.3
20260830102425 17 238 3.2 4.8 0.00 0.00 0.00 68 1011.3
20260830102327 17 217 3.2 4.8 0.00 0.00 0.00 68 1011.3
20260830102225 17 226 3.2 4.8 0.00 0.00 0.00 68 1011.4
20260830102125 17 222 3.2 4.8 0.00 0.00 0.00 68 1011.4
20260830102023 17 235 3.2 4.8 0.00 0.00 0.00 68 1011.3
20260830101920 17 222 3.2 6.4 0.00 0.00 0.00 67 1011.4
20260830101817 17 236 1.6 6.4 0.00 0.00 0.00 67 1011.4
20260830101724 17 242 1.6 6.4 0.00 0.00 0.00 67 1011.4
20260830101715 17 226 1.6 6.4 0.00 0.00 0.00 67 1011.4
20260830101615 17 238 1.6 6.4 0.00 0.00 0.00 67 1011.4
20260830101515 17 236 1.6 6.4 0.00 0.00 0.00 67 1011.5
20260830101414 17 238 1.6 6.4 0.00 0.00 0.00 67 1011.5
20260830101309 17 229 3.2 6.4 0.00 0.00 0.00 67 1011.5
20260830101209 17 170 3.2 6.4 0.00 0.00 0.00 67 1011.5
20260830101109 17 194 3.2 6.4 0.00 0.00 0.00 67 1011.5
20260830101008 17 233 3.2 6.4 0.00 0.00 0.00 67 1011.4
20260830100907 17 203 3.2 6.4 0.00 0.00 0.00 67 1011.5
20260830100807 17 246 3.2 6.4 0.00 0.00 0.00 67 1011.4
20260830100722 17 248 3.2 6.4 0.00 0.00 0.00 67 1011.4
20260830100705 17 248 3.2 6.4 0.00 0.00 0.00 67 1011.4
20260830100602 17 233 3.2 6.4 0.00 0.00 0.00 66 1011.4
20260830100503 17 190 3.2 6.4 0.00 0.00 0.00 66 1011.4
20260830100401 17 235 3.2 6.4 0.00 0.00 0.00 66 1011.4
20260830100257 17 231 3.2 6.4 0.00 0.00 0.00 66 1011.5
20260830100214 17 243 3.2 6.4 0.00 0.00 0.00 66 1011.5
20260830100157 17 236 3.2 8.0 0.00 0.00 0.00 66 1011.5
20260830100057 17 221 3.2 8.0 0.00 0.00 0.00 66 1011.4
20260830095955 17 245 3.2 8.0 0.00 0.00 0.00 66 1011.5
20260830095939 17 228 3.2 8.0 0.00 0.00 0.00 66 1011.5
20260830095852 17 236 3.2 8.0 0.00 0.00 0.00 66 1011.5
20260830095818 17 239 3.2 8.0 0.00 0.00 0.00 66 1011.4
20260830095648 17 228 3.2 8.0 0.00 0.00 0.00 66 1011.5
20260830095548 17 219 3.2 8.0 0.00 0.00 0.00 66 1011.5
20260830095446 17 238 3.2 8.0 0.00 0.00 0.00 66 1011.5
20260830095346 17 224 3.2 8.0 0.00 0.00 0.00 66 1011.4
20260830095247 17 154 3.2 8.0 0.00 0.00 0.00 66 1011.5
20260830095201 17 204 3.2 6.4 0.00 0.00 0.00 66 1011.4
20260830095146 17 212 3.2 6.4 0.00 0.00 0.00 66 1011.4
20260830095045 17 230 3.2 6.4 0.00 0.00 0.00 66 1011.4
20260830094943 17 225 3.2 6.4 0.00 0.00 0.00 66 1011.4
20260830094840 17 228 3.2 6.4 0.00 0.00 0.00 66 1011.4
20260830094734 17 246 3.2 6.4 0.00 0.00 0.00 66 1011.4
20260830094655 17 238 3.2 6.4 0.00 0.00 0.00 66 1011.4
20260830094635 17 231 3.2 6.4 0.00 0.00 0.00 66 1011.4
20260830094535 17 221 3.2 6.4 0.00 0.00 0.00 66 1011.4
20260830094435 17 228 4.8 6.4 0.00 0.00 0.00 66 1011.4
20260830094334 17 224 4.8 6.4 0.00 0.00 0.00 66 1011.4
20260830094231 17 208 4.8 9.7 0.00 0.00 0.00 66 1011.4
20260830094150 17 217 4.8 9.7 0.00 0.00 0.00 66 1011.4
20260830094129 17 246 4.8 9.7 0.00 0.00 0.00 66 1011.4
20260830094029 17 220 4.8 9.7 0.00 0.00 0.00 65 1011.5
20260830093928 17 238 4.8 9.7 0.00 0.00 0.00 66 1011.5
20260830093828 17 207 4.8 9.7 0.00 0.00 0.00 65 1011.4
20260830093725 17 240 4.8 9.7 0.00 0.00 0.00 65 1011.5
20260830093644 17 229 4.8 9.7 0.00 0.00 0.00 65 1011.4
20260830093625 17 235 4.8 9.7 0.00 0.00 0.00 65 1011.4
20260830093524 17 217 4.8 9.7 0.00 0.00 0.00 65 1011.4
20260830093424 17 259 4.8 9.7 0.00 0.00 0.00 65 1011.5
20260830093322 17 222 4.8 8.0 0.00 0.00 0.00 65 1011.4
20260830093217 17 259 4.8 8.0 0.00 0.00 0.00 65 1011.4
20260830093137 17 233 4.8 8.0 0.00 0.00 0.00 65 1011.4
20260830093116 17 246 4.8 8.0 0.00 0.00 0.00 65 1011.5
20260830093019 17 231 4.8 8.0 0.00 0.00 0.00 65 1011.5
20260830092916 17 194 4.8 8.0 0.00 0.00 0.00 65 1011.5
20260830092816 17 242 4.8 8.0 0.00 0.00 0.00 65 1011.5
20260830092711 17 215 4.8 8.0 0.00 0.00 0.00 65 1011.5
20260830092631 17 226 4.8 8.0 0.00 0.00 0.00 65 1011.5
20260830092610 17 233 4.8 8.0 0.00 0.00 0.00 65 1011.5
20260830092511 17 246 3.2 8.0 0.00 0.00 0.00 65 1011.5
20260830092411 17 200 3.2 6.4 0.00 0.00 0.00 65 1011.5
20260830092346 17 235 3.2 6.4 0.00 0.00 0.00 65 1011.5
20260830092312 17 231 3.2 6.4 0.00 0.00 0.00 65 1011.5
20260830092235 17 205 3.2 6.4 0.00 0.00 0.00 65 1011.5
20260830092108 17 235 3.2 6.4 0.00 0.00 0.00 65 1011.4
20260830092005 17 235 3.2 6.4 0.00 0.00 0.00 65 1011.5
20260830091905 17 238 3.2 6.4 0.00 0.00 0.00 65 1011.5
20260830091804 17 236 3.2 6.4 0.00 0.00 0.00 65 1011.4
20260830091658 17 242 3.2 6.4 0.00 0.00 0.00 65 1011.5
20260830091619 17 238 3.2 6.4 0.00 0.00 0.00 65 1011.5
20260830091600 17 243 3.2 6.4 0.00 0.00 0.00 65 1011.4
20260830091458 17 226 3.2 6.4 0.00 0.00 0.00 65 1011.5
20260830091359 17 246 3.2 6.4 0.00 0.00 0.00 65 1011.4
20260830091258 17 232 3.2 6.4 0.00 0.00 0.00 65 1011.4
20260830091157 17 228 3.2 9.7 0.00 0.00 0.00 65 1011.4
20260830091113 17 236 3.2 9.7 0.00 0.00 0.00 66 1011.4
20260830091056 17 231 3.2 9.7 0.00 0.00 0.00 66 1011.4
20260830090955 17 217 3.2 9.7 0.00 0.00 0.00 66 1011.4
20260830090855 17 264 3.2 9.7 0.00 0.00 0.00 66 1011.4
20260830090752 17 207 3.2 9.7 0.00 0.00 0.00 66 1011.5
20260830090653 17 207 3.2 9.7 0.00 0.00 0.00 66 1011.5
20260830090607 17 212 3.2 9.7 0.00 0.00 0.00 66 1011.5
20260830090549 17 197 3.2 9.7 0.00 0.00 0.00 66 1011.5
20260830090451 17 233 3.2 9.7 0.00 0.00 0.00 66 1011.5
20260830090349 17 211 3.2 9.7 0.00 0.00 0.00 66 1011.5
20260830090246 17 221 3.2 9.7 0.00 0.00 0.00 66 1011.5
20260830090147 17 233 3.2 8.0 0.00 0.00 0.00 66 1011.5
20260830090045 17 225 1.6 8.0 0.00 0.00 0.00 66 1011.5
20260830085945 17 203 1.6 6.4 0.00 0.00 0.00 67 1011.4
20260830085843 17 218 1.6 6.4 0.00 0.00 0.00 67 1011.5
20260830085740 17 167 1.6 6.4 0.00 0.00 0.00 67 1011.5
20260830085637 17 198 1.6 4.8 0.00 0.00 0.00 67 1011.5
20260830085556 17 214 1.6 4.8 0.00 0.00 0.00 67 1011.5
20260830085536 17 201 1.6 4.8 0.00 0.00 0.00 67 1011.5
20260830085436 17 216 1.6 3.2 0.00 0.00 0.00 67 1011.5
20260830085337 17 162 0.0 3.2 0.00 0.00 0.00 67 1011.5
20260830085234 17 214 0.0 3.2 0.00 0.00 0.00 67 1011.5
20260830085132 17 204 0.0 1.6 0.00 0.00 0.00 67 1011.5
20260830085030 17 204 0.0 3.2 0.00 0.00 0.00 67 1011.5
20260830084930 17 219 0.0 3.2 0.00 0.00 0.00 67 1011.6
20260830084829 17 219 0.0 3.2 0.00 0.00 0.00 67 1011.6
20260830084729 17 219 0.0 3.2 0.00 0.00 0.00 66 1011.5
20260830084625 17 219 0.0 3.2 0.00 0.00 0.00 66 1011.6
20260830084544 17 219 0.0 3.2 0.00 0.00 0.00 66 1011.5
20260830084524 17 220 0.0 3.2 0.00 0.00 0.00 66 1011.5
20260830084423 17 219 0.0 3.2 0.00 0.00 0.00 66 1011.5
20260830084323 17 219 0.0 3.2 0.00 0.00 0.00 66 1011.5
20260830084221 17 219 0.0 3.2 0.00 0.00 0.00 66 1011.5
20260830084116 17 219 0.0 3.2 0.00 0.00 0.00 66 1011.5
20260830084037 17 211 0.0 3.2 0.00 0.00 0.00 66 1011.5
20260830084017 17 211 0.0 3.2 0.00 0.00 0.00 66 1011.6
20260830083916 17 197 0.0 4.8 0.00 0.00 0.00 66 1011.6
20260830083817 17 198 1.6 8.0 0.00 0.00 0.00 66 1011.6
20260830083716 17 197 1.6 8.0 0.00 0.00 0.00 66 1011.6
20260830083610 17 197 1.6 8.0 0.00 0.00 0.00 66 1011.7
20260830083531 17 197 1.6 8.0 0.00 0.00 0.00 66 1011.7
20260830083511 17 198 1.6 8.0 0.00 0.00 0.00 66 1011.7
20260830083411 17 198 1.6 8.0 0.00 0.00 0.00 66 1011.7
20260830083310 17 197 1.6 8.0 0.00 0.00 0.00 66 1011.6
20260830083210 17 197 1.6 8.0 0.00 0.00 0.00 66 1011.6
20260830083105 17 208 1.6 8.0 0.00 0.00 0.00 66 1011.6
20260830083038 17 239 1.6 8.0 0.00 0.00 0.00 66 1011.6
20260830083005 17 232 1.6 8.0 0.00 0.00 0.00 66 1011.6
20260830082904 17 229 0.0 8.0 0.00 0.00 0.00 66 1011.6
20260830082805 17 203 0.0 6.4 0.00 0.00 0.00 67 1011.6
20260830082704 17 211 0.0 1.6 0.00 0.00 0.00 67 1011.6
20260830082605 17 203 0.0 1.6 0.00 0.00 0.00 67 1011.6
20260830082520 17 203 0.0 1.6 0.00 0.00 0.00 67 1011.5
20260830082503 17 171 0.0 1.6 0.00 0.00 0.00 67 1011.5
20260830082402 17 170 0.0 1.6 0.00 0.00 0.00 67 1011.5
20260830082301 17 170 0.0 1.6 0.00 0.00 0.00 67 1011.5
20260830082238 17 170 0.0 1.6 0.00 0.00 0.00 67 1011.5
20260830082158 17 170 0.0 1.6 0.00 0.00 0.00 67 1011.5
20260830082123 17 170 0.0 1.6 0.00 0.00 0.00 67 1011.5
20260830081955 17 170 0.0 1.6 0.00 0.00 0.00 67 1011.5
20260830081855 17 170 0.0 3.2 0.00 0.00 0.00 67 1011.5
20260830081753 17 171 0.0 3.2 0.00 0.00 0.00 67 1011.5
20260830081652 17 170 0.0 3.2 0.00 0.00 0.00 67 1011.5
20260830081549 17 170 0.0 3.2 0.00 0.00 0.00 67 1011.5
20260830081507 17 170 0.0 3.2 0.00 0.00 0.00 67 1011.4
20260830081454 17 170 0.0 3.2 0.00 0.00 0.00 67 1011.4
20260830081442 17 142 0.0 4.8 0.00 0.00 0.00 67 1011.4
20260830081346 17 170 1.6 4.8 0.00 0.00 0.00 67 1011.4
20260830081330 17 116 1.6 4.8 0.00 0.00 0.00 67 1011.4
20260830081146 17 142 1.6 4.8 0.00 0.00 0.00 67 1011.4
20260830081111 17 143 1.6 4.8 0.00 0.00 0.00 67 1011.4
20260830080943 17 143 0.0 4.8 0.00 0.00 0.00 67 1011.4
20260830080843 17 204 0.0 4.8 0.00 0.00 0.00 67 1011.4
20260830080743 17 204 1.6 4.8 0.00 0.00 0.00 67 1011.4
20260830080720 17 136 0.0 4.8 0.00 0.00 0.00 68 1011.4
20260830080640 17 204 0.0 4.8 0.00 0.00 0.00 67 1011.4
20260830080606 17 187 0.0 4.8 0.00 0.00 0.00 67 1011.5
20260830080439 17 168 0.0 4.8 0.00 0.00 0.00 68 1011.4
20260830080339 17 190 0.0 3.2 0.00 0.00 0.00 68 1011.4
20260830080237 17 190 0.0 4.8 0.00 0.00 0.00 68 1011.5
20260830080134 17 190 0.0 4.8 0.00 0.00 0.00 68 1011.4
20260830080031 17 190 0.0 4.8 0.00 0.00 0.00 68 1011.4
20260830075929 17 190 1.6 4.8 0.00 0.00 0.00 68 1011.4
20260830075829 17 190 1.6 4.8 0.00 0.00 0.00 68 1011.5
20260830075728 17 208 1.6 6.4 0.00 0.00 0.00 68 1011.4
20260830075628 17 208 1.6 6.4 0.00 0.00 0.00 68 1011.4
20260830075529 17 208 1.6 6.4 0.00 0.00 0.00 68 1011.4
20260830075427 17 208 1.6 6.4 0.00 0.00 0.00 68 1011.4
20260830075327 17 208 1.6 6.4 0.00 0.00 0.00 68 1011.4
20260830075225 17 124 1.6 6.4 0.00 0.00 0.00 69 1011.4
20260830075121 17 124 1.6 6.4 0.00 0.00 0.00 69 1011.5
20260830075020 17 169 0.0 6.4 0.00 0.00 0.00 69 1011.5
20260830074937 17 133 0.0 6.4 0.00 0.00 0.00 69 1011.5
20260830074918 17 222 0.0 6.4 0.00 0.00 0.00 69 1011.5
20260830074817 17 190 0.0 4.8 0.00 0.00 0.00 69 1011.5
20260830074716 17 143 0.0 1.6 0.00 0.00 0.00 70 1011.5
20260830074654 17 156 0.0 1.6 0.00 0.00 0.00 70 1011.5
20260830074615 17 156 0.0 1.6 0.00 0.00 0.00 70 1011.5
20260830074546 17 156 0.0 1.6 0.00 0.00 0.00 70 1011.5
20260830074411 17 156 0.0 1.6 0.00 0.00 0.00 70 1011.4